Wetterdaten: Montag, 24.02.2014
Datum Zeit Temp. Aussen +5cm Feuchte Auss Luftdruck Regen Sonnenschein Regendauer UV Solar Windben
24.02.2014 00:00 4,5 C 2,8 C 87 % 1017,7 hPa 0,0 l/m 0 min 0 min 0,0 UV-I 0 W/m 18,0 km/h (3 Bft)
24.02.2014 00:02 4,4 C 2,8 C 87 % 1017,7 hPa 0,0 l/m 0 min 0 min 0,0 UV-I 0 W/m 15,4 km/h (3 Bft)
24.02.2014 00:06 4,4 C 2,8 C 87 % 1017,8 hPa 0,0 l/m 0 min 0 min 0,0 UV-I 0 W/m 15,4 km/h (3 Bft)
24.02.2014 00:08 4,4 C 2,8 C 88 % 1017,8 hPa 0,0 l/m 0 min 0 min 0,0 UV-I 0 W/m 12,9 km/h (3 Bft)
24.02.2014 00:10 4,4 C 2,8 C 88 % 1017,8 hPa 0,0 l/m 0 min 0 min 0,0 UV-I 0 W/m 10,3 km/h (2 Bft)
24.02.2014 00:12 4,4 C 2,8 C 87 % 1017,7 hPa 0,0 l/m 0 min 0 min 0,0 UV-I 0 W/m 10,3 km/h (2 Bft)
24.02.2014 00:14 4,4 C 2,8 C 87 % 1017,7 hPa 0,0 l/m 0 min 0 min 0,0 UV-I 0 W/m 10,3 km/h (2 Bft)
24.02.2014 00:16 4,4 C 2,8 C 87 % 1017,7 hPa 0,0 l/m 0 min 0 min 0,0 UV-I 0 W/m 10,3 km/h (2 Bft)
24.02.2014 00:18 4,4 C 2,8 C 87 % 1017,6 hPa 0,0 l/m 0 min 0 min 0,0 UV-I 0 W/m 7,7 km/h (2 Bft)
24.02.2014 00:20 4,4 C 2,8 C 88 % 1017,6 hPa 0,0 l/m 0 min 0 min 0,0 UV-I 0 W/m 10,3 km/h (2 Bft)
24.02.2014 00:22 4,3 C 2,8 C 88 % 1017,6 hPa 0,0 l/m 0 min 0 min 0,0 UV-I 0 W/m 7,7 km/h (2 Bft)
24.02.2014 00:24 4,3 C 2,8 C 88 % 1017,6 hPa 0,0 l/m 0 min 0 min 0,0 UV-I 0 W/m 10,3 km/h (2 Bft)
24.02.2014 00:26 4,3 C 2,2 C 88 % 1017,5 hPa 0,0 l/m 0 min 0 min 0,0 UV-I 0 W/m 10,3 km/h (2 Bft)
24.02.2014 00:28 4,3 C 2,2 C 88 % 1017,5 hPa 0,0 l/m 0 min 0 min 0,0 UV-I 0 W/m 10,3 km/h (2 Bft)
24.02.2014 00:30 4,3 C 2,2 C 88 % 1017,5 hPa 0,0 l/m 0 min 0 min 0,0 UV-I 0 W/m 7,7 km/h (2 Bft)
24.02.2014 00:32 4,3 C 2,8 C 88 % 1017,5 hPa 0,0 l/m 0 min 0 min 0,0 UV-I 0 W/m 7,7 km/h (2 Bft)
24.02.2014 00:34 4,3 C 2,8 C 88 % 1017,3 hPa 0,0 l/m 0 min 0 min 0,0 UV-I 0 W/m 7,7 km/h (2 Bft)
24.02.2014 00:36 4,3 C 2,2 C 88 % 1017,4 hPa 0,0 l/m 0 min 0 min 0,0 UV-I 0 W/m 7,7 km/h (2 Bft)
24.02.2014 00:38 4,2 C 2,2 C 88 % 1017,3 hPa 0,0 l/m 0 min 0 min 0,0 UV-I 0 W/m 0,0 km/h (0 Bft)
24.02.2014 00:40 4,2 C 2,2 C 88 % 1017,3 hPa 0,0 l/m 0 min 0 min 0,0 UV-I 0 W/m 0,0 km/h (0 Bft)
24.02.2014 00:42 4,2 C 2,2 C 88 % 1017,2 hPa 0,0 l/m 0 min 0 min 0,0 UV-I 0 W/m 7,7 km/h (2 Bft)
24.02.2014 00:44 4,2 C 2,2 C 88 % 1017,3 hPa 0,0 l/m 0 min 0 min 0,0 UV-I 0 W/m 12,9 km/h (3 Bft)
24.02.2014 00:46 4,2 C 2,2 C 88 % 1017,3 hPa 0,0 l/m 0 min 0 min 0,0 UV-I 0 W/m 2,6 km/h (1 Bft)
24.02.2014 00:48 4,2 C 2,2 C 88 % 1017,2 hPa 0,0 l/m 0 min 0 min 0,0 UV-I 0 W/m 7,7 km/h (2 Bft)
24.02.2014 00:50 4,2 C 2,2 C 88 % 1017,2 hPa 0,0 l/m 0 min 0 min 0,0 UV-I 0 W/m 5,1 km/h (1 Bft)
24.02.2014 00:52 4,2 C 2,2 C 88 % 1017,2 hPa 0,0 l/m 0 min 0 min 0,0 UV-I 0 W/m 2,6 km/h (1 Bft)
24.02.2014 00:54 4,2 C 2,8 C 88 % 1017,2 hPa 0,0 l/m 0 min 0 min 0,0 UV-I 0 W/m 12,9 km/h (3 Bft)
24.02.2014 00:56 4,3 C 2,2 C 88 % 1017,2 hPa 0,0 l/m 0 min 0 min 0,0 UV-I 0 W/m 12,9 km/h (3 Bft)
24.02.2014 00:58 4,3 C 2,8 C 88 % 1017,1 hPa 0,0 l/m 0 min 0 min 0,0 UV-I 0 W/m 15,4 km/h (3 Bft)
24.02.2014 01:00 4,3 C 2,8 C 88 % 1017,1 hPa 0,0 l/m 0 min 0 min 0,0 UV-I 0 W/m 15,4 km/h (3 Bft)
24.02.2014 01:02 4,4 C 2,8 C 88 % 1017,1 hPa 0,0 l/m 0 min 0 min 0,0 UV-I 0 W/m 12,9 km/h (3 Bft)
24.02.2014 01:04 4,4 C 2,8 C 88 % 1017,0 hPa 0,0 l/m 0 min 0 min 0,0 UV-I 0 W/m 15,4 km/h (3 Bft)
24.02.2014 01:06 4,5 C 2,8 C 88 % 1017,1 hPa 0,0 l/m 0 min 0 min 0,0 UV-I 0 W/m 23,2 km/h (4 Bft)
24.02.2014 01:08 4,5 C 2,8 C 87 % 1017,1 hPa 0,0 l/m 0 min 0 min 0,0 UV-I 0 W/m 23,2 km/h (4 Bft)
24.02.2014 01:10 4,6 C 2,8 C 87 % 1017,0 hPa 0,0 l/m 0 min 0 min 0,0 UV-I 0 W/m 18,0 km/h (3 Bft)
24.02.2014 01:12 4,6 C 2,8 C 87 % 1016,9 hPa 0,0 l/m 0 min 0 min 0,0 UV-I 0 W/m 28,3 km/h (4 Bft)
24.02.2014 01:14 4,7 C 2,8 C 87 % 1016,9 hPa 0,0 l/m 0 min 0 min 0,0 UV-I 0 W/m 15,4 km/h (3 Bft)
24.02.2014 01:16 4,7 C 2,8 C 87 % 1016,9 hPa 0,0 l/m 0 min 0 min 0,0 UV-I 0 W/m 18,0 km/h (3 Bft)
24.02.2014 01:18 4,7 C 2,8 C 87 % 1016,9 hPa 0,0 l/m 0 min 0 min 0,0 UV-I 0 W/m 10,3 km/h (2 Bft)
24.02.2014 01:20 4,7 C 2,8 C 87 % 1016,8 hPa 0,0 l/m 0 min 0 min 0,0 UV-I 0 W/m 15,4 km/h (3 Bft)
24.02.2014 01:22 4,7 C 2,8 C 87 % 1016,8 hPa 0,0 l/m 0 min 0 min 0,0 UV-I 0 W/m 10,3 km/h (2 Bft)
24.02.2014 01:24 4,7 C 2,8 C 86 % 1016,7 hPa 0,0 l/m 0 min 0 min 0,0 UV-I 0 W/m 10,3 km/h (2 Bft)
24.02.2014 01:26 4,7 C 2,8 C 86 % 1016,7 hPa 0,0 l/m 0 min 0 min 0,0 UV-I 0 W/m 15,4 km/h (3 Bft)
24.02.2014 01:28 4,7 C 2,8 C 86 % 1016,7 hPa 0,0 l/m 0 min 0 min 0,0 UV-I 0 W/m 10,3 km/h (2 Bft)
24.02.2014 01:30 4,7 C 2,8 C 86 % 1016,7 hPa 0,0 l/m 0 min 0 min 0,0 UV-I 0 W/m 12,9 km/h (3 Bft)
24.02.2014 01:32 4,7 C 2,8 C 86 % 1016,7 hPa 0,0 l/m 0 min 0 min 0,0 UV-I 0 W/m 12,9 km/h (3 Bft)
24.02.2014 01:34 4,7 C 2,8 C 86 % 1016,7 hPa 0,0 l/m 0 min 0 min 0,0 UV-I 0 W/m 15,4 km/h (3 Bft)
24.02.2014 01:36 4,6 C 2,8 C 86 % 1016,7 hPa 0,0 l/m 0 min 0 min 0,0 UV-I 0 W/m 12,9 km/h (3 Bft)
24.02.2014 01:38 4,6 C 2,8 C 87 % 1016,7 hPa 0,0 l/m 0 min 0 min 0,0 UV-I 0 W/m 15,4 km/h (3 Bft)
24.02.2014 01:40 4,7 C 2,8 C 87 % 1016,7 hPa 0,0 l/m 0 min 0 min 0,0 UV-I 0 W/m 15,4 km/h (3 Bft)
24.02.2014 01:42 4,7 C 2,8 C 86 % 1016,7 hPa 0,0 l/m 0 min 0 min 0,0 UV-I 0 W/m 12,9 km/h (3 Bft)
24.02.2014 01:44 4,6 C 2,8 C 86 % 1016,7 hPa 0,0 l/m 0 min 0 min 0,0 UV-I 0 W/m 18,0 km/h (3 Bft)
24.02.2014 01:46 4,6 C 2,8 C 86 % 1016,6 hPa 0,0 l/m 0 min 0 min 0,0 UV-I 0 W/m 15,4 km/h (3 Bft)
24.02.2014 01:48 4,6 C 2,8 C 86 % 1016,6 hPa 0,0 l/m 0 min 0 min 0,0 UV-I 0 W/m 18,0 km/h (3 Bft)
24.02.2014 01:50 4,6 C 2,8 C 86 % 1016,6 hPa 0,0 l/m 0 min 0 min 0,0 UV-I 0 W/m 12,9 km/h (3 Bft)
24.02.2014 01:52 4,6 C 2,8 C 87 % 1016,5 hPa 0,0 l/m 0 min 0 min 0,0 UV-I 0 W/m 15,4 km/h (3 Bft)
24.02.2014 01:54 4,6 C 2,8 C 87 % 1016,5 hPa 0,0 l/m 0 min 0 min 0,0 UV-I 0 W/m 15,4 km/h (3 Bft)
24.02.2014 01:56 4,6 C 2,8 C 87 % 1016,5 hPa 0,0 l/m 0 min 0 min 0,0 UV-I 0 W/m 15,4 km/h (3 Bft)
24.02.2014 01:58 4,6 C 2,8 C 87 % 1016,4 hPa 0,0 l/m 0 min 0 min 0,0 UV-I 0 W/m 15,4 km/h (3 Bft)
24.02.2014 02:00 4,6 C 2,8 C 87 % 1016,4 hPa 0,0 l/m 0 min 0 min 0,0 UV-I 0 W/m 23,2 km/h (4 Bft)
24.02.2014 02:02 4,6 C 2,8 C 87 % 1016,3 hPa 0,0 l/m 0 min 0 min 0,0 UV-I 0 W/m 12,9 km/h (3 Bft)
24.02.2014 02:04 4,6 C 2,8 C 87 % 1016,3 hPa 0,0 l/m 0 min 0 min 0,0 UV-I 0 W/m 18,0 km/h (3 Bft)
24.02.2014 02:06 4,6 C 2,8 C 87 % 1016,2 hPa 0,0 l/m 0 min 0 min 0,0 UV-I 0 W/m 23,2 km/h (4 Bft)
24.02.2014 02:08 4,6 C 2,8 C 87 % 1016,2 hPa 0,0 l/m 0 min 0 min 0,0 UV-I 0 W/m 18,0 km/h (3 Bft)
24.02.2014 02:10 4,6 C 2,8 C 87 % 1016,2 hPa 0,0 l/m 0 min 0 min 0,0 UV-I 0 W/m 18,0 km/h (3 Bft)
24.02.2014 02:12 4,6 C 2,8 C 87 % 1016,2 hPa 0,0 l/m 0 min 0 min 0,0 UV-I 0 W/m 15,4 km/h (3 Bft)
24.02.2014 02:14 4,6 C 2,8 C 87 % 1016,2 hPa 0,0 l/m 0 min 0 min 0,0 UV-I 0 W/m 15,4 km/h (3 Bft)
24.02.2014 02:16 4,6 C 2,8 C 87 % 1016,2 hPa 0,0 l/m 0 min 0 min 0,0 UV-I 0 W/m 23,2 km/h (4 Bft)
24.02.2014 02:18 4,6 C 2,8 C 87 % 1016,2 hPa 0,0 l/m 0 min 0 min 0,0 UV-I 0 W/m 20,6 km/h (4 Bft)
24.02.2014 02:20 4,6 C 2,8 C 87 % 1016,2 hPa 0,0 l/m 0 min 0 min 0,0 UV-I 0 W/m 15,4 km/h (3 Bft)
24.02.2014 02:22 4,6 C 2,8 C 87 % 1016,2 hPa 0,0 l/m 0 min 0 min 0,0 UV-I 0 W/m 12,9 km/h (3 Bft)
24.02.2014 02:24 4,5 C 2,8 C 87 % 1016,2 hPa 0,0 l/m 0 min 0 min 0,0 UV-I 0 W/m 18,0 km/h (3 Bft)
24.02.2014 02:26 4,5 C 2,8 C 87 % 1016,2 hPa 0,0 l/m 0 min 0 min 0,0 UV-I 0 W/m 18,0 km/h (3 Bft)
24.02.2014 02:28 4,5 C 2,8 C 87 % 1016,2 hPa 0,0 l/m 0 min 0 min 0,0 UV-I 0 W/m 25,7 km/h (4 Bft)
24.02.2014 02:30 4,5 C 2,8 C 87 % 1016,1 hPa 0,0 l/m 0 min 0 min 0,0 UV-I 0 W/m 20,6 km/h (4 Bft)
24.02.2014 02:32 4,4 C 2,8 C 87 % 1016,1 hPa 0,0 l/m 0 min 0 min 0,0 UV-I 0 W/m 15,4 km/h (3 Bft)
24.02.2014 02:34 4,4 C 2,8 C 87 % 1016,2 hPa 0,0 l/m 0 min 0 min 0,0 UV-I 0 W/m 20,6 km/h (4 Bft)
24.02.2014 02:36 4,4 C 2,8 C 87 % 1016,1 hPa 0,0 l/m 0 min 0 min 0,0 UV-I 0 W/m 20,6 km/h (4 Bft)
24.02.2014 02:38 4,4 C 2,8 C 87 % 1016,1 hPa 0,0 l/m 0 min 0 min 0,0 UV-I 0 W/m 15,4 km/h (3 Bft)
24.02.2014 02:40 4,4 C 2,8 C 87 % 1016,1 hPa 0,0 l/m 0 min 0 min 0,0 UV-I 0 W/m 15,4 km/h (3 Bft)
24.02.2014 02:42 4,4 C 2,8 C 87 % 1016,1 hPa 0,0 l/m 0 min 0 min 0,0 UV-I 0 W/m 25,7 km/h (4 Bft)
24.02.2014 02:44 4,4 C 2,8 C 87 % 1015,9 hPa 0,0 l/m 0 min 0 min 0,0 UV-I 0 W/m 20,6 km/h (4 Bft)
24.02.2014 02:46 4,4 C 2,8 C 87 % 1015,9 hPa 0,0 l/m 0 min 0 min 0,0 UV-I 0 W/m 15,4 km/h (3 Bft)
24.02.2014 02:48 4,4 C 2,8 C 87 % 1015,9 hPa 0,0 l/m 0 min 0 min 0,0 UV-I 0 W/m 18,0 km/h (3 Bft)
24.02.2014 02:50 4,4 C 2,8 C 87 % 1015,9 hPa 0,0 l/m 0 min 0 min 0,0 UV-I 0 W/m 15,4 km/h (3 Bft)
24.02.2014 02:52 4,4 C 2,8 C 87 % 1015,9 hPa 0,0 l/m 0 min 0 min 0,0 UV-I 0 W/m 12,9 km/h (3 Bft)
24.02.2014 02:54 4,4 C 2,8 C 87 % 1015,9 hPa 0,0 l/m 0 min 0 min 0,0 UV-I 0 W/m 15,4 km/h (3 Bft)
24.02.2014 02:56 4,4 C 2,8 C 87 % 1015,8 hPa 0,0 l/m 0 min 0 min 0,0 UV-I 0 W/m 15,4 km/h (3 Bft)
24.02.2014 02:58 4,4 C 2,8 C 87 % 1015,8 hPa 0,0 l/m 0 min 0 min 0,0 UV-I 0 W/m 10,3 km/h (2 Bft)
24.02.2014 03:00 4,4 C 2,8 C 87 % 1015,8 hPa 0,0 l/m 0 min 0 min 0,0 UV-I 0 W/m 10,3 km/h (2 Bft)
24.02.2014 03:02 4,3 C 2,8 C 87 % 1015,8 hPa 0,0 l/m 0 min 0 min 0,0 UV-I 0 W/m 20,6 km/h (4 Bft)
24.02.2014 03:04 4,3 C 2,8 C 87 % 1015,8 hPa 0,0 l/m 0 min 0 min 0,0 UV-I 0 W/m 18,0 km/h (3 Bft)
24.02.2014 03:06 4,3 C 2,8 C 87 % 1015,8 hPa 0,0 l/m 0 min 0 min 0,0 UV-I 0 W/m 10,3 km/h (2 Bft)
24.02.2014 03:08 4,3 C 2,8 C 87 % 1015,7 hPa 0,0 l/m 0 min 0 min 0,0 UV-I 0 W/m 12,9 km/h (3 Bft)
24.02.2014 03:10 4,3 C 2,8 C 87 % 1015,7 hPa 0,0 l/m 0 min 0 min 0,0 UV-I 0 W/m 12,9 km/h (3 Bft)
24.02.2014 03:12 4,3 C 2,8 C 87 % 1015,7 hPa 0,0 l/m 0 min 0 min 0,0 UV-I 0 W/m 12,9 km/h (3 Bft)
24.02.2014 03:14 4,3 C 2,8 C 87 % 1015,6 hPa 0,0 l/m 0 min 0 min 0,0 UV-I 0 W/m 18,0 km/h (3 Bft)
24.02.2014 03:16 4,3 C 2,8 C 88 % 1015,6 hPa 0,0 l/m 0 min 0 min 0,0 UV-I 0 W/m 10,3 km/h (2 Bft)
24.02.2014 03:18 4,3 C 2,8 C 88 % 1015,6 hPa 0,0 l/m 0 min 0 min 0,0 UV-I 0 W/m 15,4 km/h (3 Bft)
24.02.2014 03:20 4,3 C 2,8 C 88 % 1015,5 hPa 0,0 l/m 0 min 0 min 0,0 UV-I 0 W/m 23,2 km/h (4 Bft)
24.02.2014 03:22 4,3 C 2,8 C 88 % 1015,5 hPa 0,0 l/m 0 min 0 min 0,0 UV-I 0 W/m 15,4 km/h (3 Bft)
24.02.2014 03:24 4,3 C 2,8 C 88 % 1015,5 hPa 0,0 l/m 0 min 0 min 0,0 UV-I 0 W/m 18,0 km/h (3 Bft)
24.02.2014 03:26 4,2 C 2,2 C 88 % 1015,4 hPa 0,0 l/m 0 min 0 min 0,0 UV-I 0 W/m 10,3 km/h (2 Bft)
24.02.2014 03:28 4,2 C 2,2 C 88 % 1015,4 hPa 0,0 l/m 0 min 0 min 0,0 UV-I 0 W/m 10,3 km/h (2 Bft)
24.02.2014 03:30 4,2 C 2,8 C 88 % 1015,4 hPa 0,0 l/m 0 min 0 min 0,0 UV-I 0 W/m 18,0 km/h (3 Bft)
24.02.2014 03:32 4,2 C 2,8 C 88 % 1015,3 hPa 0,0 l/m 0 min 0 min 0,0 UV-I 0 W/m 15,4 km/h (3 Bft)
24.02.2014 03:34 4,2 C 2,8 C 88 % 1015,3 hPa 0,0 l/m 0 min 0 min 0,0 UV-I 0 W/m 12,9 km/h (3 Bft)
24.02.2014 03:36 4,2 C 2,2 C 88 % 1015,3 hPa 0,0 l/m 0 min 0 min 0,0 UV-I 0 W/m 30,9 km/h (5 Bft)
24.02.2014 03:38 4,2 C 2,8 C 88 % 1015,2 hPa 0,0 l/m 0 min 0 min 0,0 UV-I 0 W/m 20,6 km/h (4 Bft)
24.02.2014 03:40 4,2 C 2,2 C 88 % 1015,2 hPa 0,0 l/m 0 min 0 min 0,0 UV-I 0 W/m 15,4 km/h (3 Bft)
24.02.2014 03:42 4,2 C 2,2 C 88 % 1015,2 hPa 0,0 l/m 0 min 0 min 0,0 UV-I 0 W/m 15,4 km/h (3 Bft)
24.02.2014 03:44 4,2 C 2,2 C 88 % 1015,2 hPa 0,0 l/m 0 min 0 min 0,0 UV-I 0 W/m 15,4 km/h (3 Bft)
24.02.2014 03:46 4,2 C 2,8 C 88 % 1015,2 hPa 0,0 l/m 0 min 0 min 0,0 UV-I 0 W/m 18,0 km/h (3 Bft)
24.02.2014 03:48 4,2 C 2,8 C 88 % 1015,1 hPa 0,0 l/m 0 min 0 min 0,0 UV-I 0 W/m 12,9 km/h (3 Bft)
24.02.2014 03:50 4,2 C 2,2 C 88 % 1015,1 hPa 0,0 l/m 0 min 0 min 0,0 UV-I 0 W/m 15,4 km/h (3 Bft)
24.02.2014 03:52 4,2 C 2,2 C 88 % 1015,1 hPa 0,0 l/m 0 min 0 min 0,0 UV-I 0 W/m 15,4 km/h (3 Bft)
24.02.2014 03:54 4,2 C 2,2 C 88 % 1015,1 hPa 0,0 l/m 0 min 0 min 0,0 UV-I 0 W/m 12,9 km/h (3 Bft)
24.02.2014 03:56 4,1 C 2,2 C 88 % 1015,1 hPa 0,0 l/m 0 min 0 min 0,0 UV-I 0 W/m 12,9 km/h (3 Bft)
24.02.2014 03:58 4,1 C 2,2 C 88 % 1015,0 hPa 0,0 l/m 0 min 0 min 0,0 UV-I 0 W/m 12,9 km/h (3 Bft)
24.02.2014 04:00 4,1 C 2,2 C 88 % 1015,0 hPa 0,0 l/m 0 min 0 min 0,0 UV-I 0 W/m 18,0 km/h (3 Bft)
24.02.2014 04:02 4,1 C 2,2 C 88 % 1015,0 hPa 0,0 l/m 0 min 0 min 0,0 UV-I 0 W/m 15,4 km/h (3 Bft)
24.02.2014 04:04 4,1 C 2,2 C 88 % 1014,9 hPa 0,0 l/m 0 min 0 min 0,0 UV-I 0 W/m 15,4 km/h (3 Bft)
24.02.2014 04:06 4,1 C 2,2 C 88 % 1014,9 hPa 0,0 l/m 0 min 0 min 0,0 UV-I 0 W/m 18,0 km/h (3 Bft)
24.02.2014 04:08 4,0 C 2,2 C 88 % 1014,9 hPa 0,0 l/m 0 min 0 min 0,0 UV-I 0 W/m 15,4 km/h (3 Bft)
24.02.2014 04:10 4,0 C 2,2 C 88 % 1014,8 hPa 0,0 l/m 0 min 0 min 0,0 UV-I 0 W/m 18,0 km/h (3 Bft)
24.02.2014 04:12 3,9 C 2,2 C 88 % 1014,8 hPa 0,0 l/m 0 min 0 min 0,0 UV-I 0 W/m 12,9 km/h (3 Bft)
24.02.2014 04:14 3,9 C 2,2 C 88 % 1014,7 hPa 0,0 l/m 0 min 0 min 0,0 UV-I 0 W/m 18,0 km/h (3 Bft)
24.02.2014 04:16 3,9 C 2,2 C 88 % 1014,7 hPa 0,0 l/m 0 min 0 min 0,0 UV-I 0 W/m 18,0 km/h (3 Bft)
24.02.2014 04:18 3,9 C 2,2 C 88 % 1014,7 hPa 0,0 l/m 0 min 0 min 0,0 UV-I 0 W/m 15,4 km/h (3 Bft)
24.02.2014 04:20 3,9 C 2,2 C 88 % 1014,8 hPa 0,0 l/m 0 min 0 min 0,0 UV-I 0 W/m 18,0 km/h (3 Bft)
24.02.2014 04:22 3,9 C 2,2 C 88 % 1014,8 hPa 0,0 l/m 0 min 0 min 0,0 UV-I 0 W/m 15,4 km/h (3 Bft)
24.02.2014 04:24 3,9 C 2,2 C 88 % 1014,8 hPa 0,0 l/m 0 min 0 min 0,0 UV-I 0 W/m 10,3 km/h (2 Bft)
24.02.2014 04:26 3,9 C 2,2 C 88 % 1014,8 hPa 0,0 l/m 0 min 0 min 0,0 UV-I 0 W/m 12,9 km/h (3 Bft)
24.02.2014 04:28 3,8 C 2,2 C 88 % 1014,7 hPa 0,0 l/m 0 min 0 min 0,0 UV-I 0 W/m 10,3 km/h (2 Bft)
24.02.2014 04:30 3,8 C 2,2 C 88 % 1014,6 hPa 0,0 l/m 0 min 0 min 0,0 UV-I 0 W/m 7,7 km/h (2 Bft)
24.02.2014 04:32 3,8 C 2,2 C 89 % 1014,7 hPa 0,0 l/m 0 min 0 min 0,0 UV-I 0 W/m 7,7 km/h (2 Bft)
24.02.2014 04:34 3,8 C 2,2 C 89 % 1014,7 hPa 0,0 l/m 0 min 0 min 0,0 UV-I 0 W/m 10,3 km/h (2 Bft)
24.02.2014 04:36 3,8 C 2,2 C 89 % 1014,7 hPa 0,0 l/m 0 min 0 min 0,0 UV-I 0 W/m 18,0 km/h (3 Bft)
24.02.2014 04:38 3,8 C 2,2 C 89 % 1014,7 hPa 0,0 l/m 0 min 0 min 0,0 UV-I 0 W/m 20,6 km/h (4 Bft)
24.02.2014 04:40 3,8 C 2,2 C 89 % 1014,6 hPa 0,0 l/m 0 min 0 min 0,0 UV-I 0 W/m 18,0 km/h (3 Bft)
24.02.2014 04:42 3,8 C 2,2 C 89 % 1014,5 hPa 0,0 l/m 0 min 0 min 0,0 UV-I 0 W/m 7,7 km/h (2 Bft)
24.02.2014 04:44 3,8 C 2,2 C 89 % 1014,5 hPa 0,0 l/m 0 min 0 min 0,0 UV-I 0 W/m 12,9 km/h (3 Bft)
24.02.2014 04:46 3,8 C 2,2 C 89 % 1014,5 hPa 0,0 l/m 0 min 0 min 0,0 UV-I 0 W/m 10,3 km/h (2 Bft)
24.02.2014 04:48 3,8 C 2,2 C 89 % 1014,4 hPa 0,0 l/m 0 min 0 min 0,0 UV-I 0 W/m 10,3 km/h (2 Bft)
24.02.2014 04:50 3,8 C 2,2 C 89 % 1014,4 hPa 0,0 l/m 0 min 0 min 0,0 UV-I 0 W/m 15,4 km/h (3 Bft)
24.02.2014 04:52 3,8 C 2,2 C 89 % 1014,4 hPa 0,0 l/m 0 min 0 min 0,0 UV-I 0 W/m 18,0 km/h (3 Bft)
24.02.2014 04:54 3,8 C 2,2 C 89 % 1014,4 hPa 0,0 l/m 0 min 0 min 0,0 UV-I 0 W/m 15,4 km/h (3 Bft)
24.02.2014 04:56 3,8 C 2,2 C 89 % 1014,4 hPa 0,0 l/m 0 min 0 min 0,0 UV-I 0 W/m 12,9 km/h (3 Bft)
24.02.2014 04:58 3,8 C 2,2 C 89 % 1014,4 hPa 0,0 l/m 0 min 0 min 0,0 UV-I 0 W/m 12,9 km/h (3 Bft)
24.02.2014 05:00 3,8 C 2,2 C 89 % 1014,4 hPa 0,0 l/m 0 min 0 min 0,0 UV-I 0 W/m 2,6 km/h (1 Bft)
24.02.2014 05:02 3,8 C 2,2 C 89 % 1014,4 hPa 0,0 l/m 0 min 0 min 0,0 UV-I 0 W/m 7,7 km/h (2 Bft)
24.02.2014 05:04 3,7 C 2,2 C 89 % 1014,4 hPa 0,0 l/m 0 min 0 min 0,0 UV-I 0 W/m 18,0 km/h (3 Bft)
24.02.2014 05:06 3,8 C 2,2 C 89 % 1014,4 hPa 0,0 l/m 0 min 0 min 0,0 UV-I 0 W/m 18,0 km/h (3 Bft)
24.02.2014 05:08 3,8 C 2,2 C 89 % 1014,4 hPa 0,0 l/m 0 min 0 min 0,0 UV-I 0 W/m 18,0 km/h (3 Bft)
24.02.2014 05:10 3,8 C 2,2 C 89 % 1014,4 hPa 0,0 l/m 0 min 0 min 0,0 UV-I 0 W/m 10,3 km/h (2 Bft)
24.02.2014 05:12 3,8 C 2,2 C 89 % 1014,4 hPa 0,0 l/m 0 min 0 min 0,0 UV-I 0 W/m 10,3 km/h (2 Bft)
24.02.2014 05:14 3,8 C 2,2 C 88 % 1014,3 hPa 0,0 l/m 0 min 0 min 0,0 UV-I 0 W/m 12,9 km/h (3 Bft)
24.02.2014 05:16 3,8 C 2,2 C 88 % 1014,3 hPa 0,0 l/m 0 min 0 min 0,0 UV-I 0 W/m 18,0 km/h (3 Bft)
24.02.2014 05:18 3,8 C 2,2 C 88 % 1014,3 hPa 0,0 l/m 0 min 0 min 0,0 UV-I 0 W/m 12,9 km/h (3 Bft)
24.02.2014 05:20 3,8 C 2,2 C 88 % 1014,3 hPa 0,0 l/m 0 min 0 min 0,0 UV-I 0 W/m 12,9 km/h (3 Bft)
24.02.2014 05:22 3,8 C 2,2 C 88 % 1014,3 hPa 0,0 l/m 0 min 0 min 0,0 UV-I 0 W/m 12,9 km/h (3 Bft)
24.02.2014 05:24 3,9 C 2,2 C 88 % 1014,3 hPa 0,0 l/m 0 min 0 min 0,0 UV-I 0 W/m 18,0 km/h (3 Bft)
24.02.2014 05:26 3,9 C 2,2 C 88 % 1014,2 hPa 0,0 l/m 0 min 0 min 0,0 UV-I 0 W/m 20,6 km/h (4 Bft)
24.02.2014 05:28 3,9 C 2,2 C 88 % 1014,2 hPa 0,0 l/m 0 min 0 min 0,0 UV-I 0 W/m 20,6 km/h (4 Bft)
24.02.2014 05:30 3,9 C 2,2 C 88 % 1014,3 hPa 0,0 l/m 0 min 0 min 0,0 UV-I 0 W/m 12,9 km/h (3 Bft)
24.02.2014 05:32 3,9 C 2,2 C 88 % 1014,2 hPa 0,0 l/m 0 min 0 min 0,0 UV-I 0 W/m 15,4 km/h (3 Bft)
24.02.2014 05:34 3,9 C 2,2 C 88 % 1014,3 hPa 0,0 l/m 0 min 0 min 0,0 UV-I 0 W/m 15,4 km/h (3 Bft)
24.02.2014 05:36 3,9 C 2,2 C 88 % 1014,2 hPa 0,0 l/m 0 min 0 min 0,0 UV-I 0 W/m 18,0 km/h (3 Bft)
24.02.2014 05:38 3,9 C 2,2 C 88 % 1014,2 hPa 0,0 l/m 0 min 0 min 0,0 UV-I 0 W/m 15,4 km/h (3 Bft)
24.02.2014 05:40 3,9 C 2,2 C 88 % 1014,2 hPa 0,0 l/m 0 min 0 min 0,0 UV-I 0 W/m 20,6 km/h (4 Bft)
24.02.2014 05:42 3,9 C 2,2 C 88 % 1014,2 hPa 0,0 l/m 0 min 0 min 0,0 UV-I 0 W/m 20,6 km/h (4 Bft)
24.02.2014 05:44 3,9 C 2,2 C 88 % 1014,3 hPa 0,0 l/m 0 min 0 min 0,0 UV-I 0 W/m 18,0 km/h (3 Bft)
24.02.2014 05:46 3,9 C 2,2 C 88 % 1014,2 hPa 0,0 l/m 0 min 0 min 0,0 UV-I 0 W/m 12,9 km/h (3 Bft)
24.02.2014 05:48 3,8 C 2,2 C 88 % 1014,3 hPa 0,0 l/m 0 min 0 min 0,0 UV-I 0 W/m 20,6 km/h (4 Bft)
24.02.2014 05:50 3,8 C 2,2 C 88 % 1014,3 hPa 0,0 l/m 0 min 0 min 0,0 UV-I 0 W/m 18,0 km/h (3 Bft)
24.02.2014 05:52 3,8 C 2,2 C 88 % 1014,2 hPa 0,0 l/m 0 min 0 min 0,0 UV-I 0 W/m 12,9 km/h (3 Bft)
24.02.2014 05:54 3,8 C 2,2 C 88 % 1014,3 hPa 0,0 l/m 0 min 0 min 0,0 UV-I 0 W/m 18,0 km/h (3 Bft)
24.02.2014 05:56 3,8 C 2,2 C 88 % 1014,3 hPa 0,0 l/m 0 min 0 min 0,0 UV-I 0 W/m 12,9 km/h (3 Bft)
24.02.2014 05:58 3,7 C 1,7 C 87 % 1014,3 hPa 0,0 l/m 0 min 0 min 0,0 UV-I 0 W/m 12,9 km/h (3 Bft)
24.02.2014 06:00 3,7 C 1,7 C 87 % 1014,3 hPa 0,0 l/m 0 min 0 min 0,0 UV-I 0 W/m 10,3 km/h (2 Bft)
24.02.2014 06:02 3,7 C 1,7 C 88 % 1014,3 hPa 0,0 l/m 0 min 0 min 0,0 UV-I 0 W/m 18,0 km/h (3 Bft)
24.02.2014 06:04 3,7 C 2,2 C 88 % 1014,2 hPa 0,0 l/m 0 min 0 min 0,0 UV-I 0 W/m 18,0 km/h (3 Bft)
24.02.2014 06:06 3,7 C 2,2 C 88 % 1014,3 hPa 0,0 l/m 0 min 0 min 0,0 UV-I 0 W/m 15,4 km/h (3 Bft)
24.02.2014 06:08 3,7 C 2,2 C 88 % 1014,2 hPa 0,0 l/m 0 min 0 min 0,0 UV-I 0 W/m 12,9 km/h (3 Bft)
24.02.2014 06:10 3,7 C 1,7 C 88 % 1014,3 hPa 0,0 l/m 0 min 0 min 0,0 UV-I 0 W/m 12,9 km/h (3 Bft)
24.02.2014 06:12 3,6 C 1,7 C 88 % 1014,3 hPa 0,0 l/m 0 min 0 min 0,0 UV-I 0 W/m 7,7 km/h (2 Bft)
24.02.2014 06:14 3,6 C 1,7 C 88 % 1014,3 hPa 0,0 l/m 0 min 0 min 0,0 UV-I 0 W/m 18,0 km/h (3 Bft)
24.02.2014 06:16 3,6 C 1,7 C 88 % 1014,3 hPa 0,0 l/m 0 min 0 min 0,0 UV-I 0 W/m 7,7 km/h (2 Bft)
24.02.2014 06:18 3,5 C 1,7 C 88 % 1014,3 hPa 0,0 l/m 0 min 0 min 0,0 UV-I 0 W/m 12,9 km/h (3 Bft)
24.02.2014 06:20 3,4 C 1,7 C 88 % 1014,3 hPa 0,0 l/m 0 min 0 min 0,0 UV-I 0 W/m 10,3 km/h (2 Bft)
24.02.2014 06:22 3,4 C 1,7 C 88 % 1014,3 hPa 0,0 l/m 0 min 0 min 0,0 UV-I 0 W/m 12,9 km/h (3 Bft)
24.02.2014 06:24 3,4 C 1,7 C 88 % 1014,4 hPa 0,0 l/m 0 min 0 min 0,0 UV-I 0 W/m 10,3 km/h (2 Bft)
24.02.2014 06:26 3,4 C 1,7 C 88 % 1014,4 hPa 0,0 l/m 0 min 0 min 0,0 UV-I 0 W/m 10,3 km/h (2 Bft)
24.02.2014 06:28 3,4 C 1,7 C 88 % 1014,3 hPa 0,0 l/m 0 min 0 min 0,0 UV-I 0 W/m 12,9 km/h (3 Bft)
24.02.2014 06:30 3,4 C 1,7 C 88 % 1014,3 hPa 0,0 l/m 0 min 0 min 0,0 UV-I 0 W/m 20,6 km/h (4 Bft)
24.02.2014 06:32 3,4 C 1,7 C 88 % 1014,3 hPa 0,0 l/m 0 min 0 min 0,0 UV-I 0 W/m 12,9 km/h (3 Bft)
24.02.2014 06:34 3,4 C 1,7 C 88 % 1014,3 hPa 0,0 l/m 0 min 0 min 0,0 UV-I 0 W/m 7,7 km/h (2 Bft)
24.02.2014 06:36 3,4 C 1,7 C 88 % 1014,2 hPa 0,0 l/m 0 min 0 min 0,0 UV-I 0 W/m 7,7 km/h (2 Bft)
24.02.2014 06:38 3,4 C 1,7 C 88 % 1014,3 hPa 0,0 l/m 0 min 0 min 0,0 UV-I 0 W/m 7,7 km/h (2 Bft)
24.02.2014 06:40 3,3 C 1,7 C 88 % 1014,3 hPa 0,0 l/m 0 min 0 min 0,0 UV-I 0 W/m 10,3 km/h (2 Bft)
24.02.2014 06:42 3,3 C 1,7 C 88 % 1014,2 hPa 0,0 l/m 0 min 0 min 0,0 UV-I 0 W/m 12,9 km/h (3 Bft)
24.02.2014 06:44 3,3 C 1,7 C 88 % 1014,2 hPa 0,0 l/m 0 min 0 min 0,0 UV-I 0 W/m 20,6 km/h (4 Bft)
24.02.2014 06:46 3,4 C 1,7 C 89 % 1014,1 hPa 0,0 l/m 0 min 0 min 0,0 UV-I 0 W/m 15,4 km/h (3 Bft)
24.02.2014 06:48 3,4 C 1,7 C 89 % 1014,1 hPa 0,0 l/m 0 min 0 min 0,0 UV-I 0 W/m 12,9 km/h (3 Bft)
24.02.2014 06:50 3,4 C 1,7 C 89 % 1014,1 hPa 0,0 l/m 0 min 0 min 0,0 UV-I 0 W/m 25,7 km/h (4 Bft)
24.02.2014 06:52 3,4 C 1,7 C 89 % 1014,0 hPa 0,0 l/m 0 min 0 min 0,0 UV-I 0 W/m 23,2 km/h (4 Bft)
24.02.2014 06:54 3,5 C 1,7 C 88 % 1014,0 hPa 0,0 l/m 0 min 0 min 0,0 UV-I 0 W/m 12,9 km/h (3 Bft)
24.02.2014 06:56 3,5 C 1,7 C 88 % 1013,9 hPa 0,0 l/m 0 min 0 min 0,0 UV-I 0 W/m 12,9 km/h (3 Bft)
24.02.2014 06:58 3,5 C 2,2 C 88 % 1013,9 hPa 0,0 l/m 0 min 0 min 0,0 UV-I 0 W/m 12,9 km/h (3 Bft)
24.02.2014 07:00 3,6 C 2,2 C 88 % 1013,9 hPa 0,0 l/m 0 min 0 min 0,0 UV-I 0 W/m 18,0 km/h (3 Bft)
24.02.2014 07:02 3,6 C 2,2 C 88 % 1013,9 hPa 0,0 l/m 0 min 0 min 0,0 UV-I 0 W/m 7,7 km/h (2 Bft)
24.02.2014 07:04 3,6 C 2,2 C 88 % 1013,8 hPa 0,0 l/m 0 min 0 min 0,0 UV-I 0 W/m 23,2 km/h (4 Bft)
24.02.2014 07:06 3,6 C 2,2 C 88 % 1013,7 hPa 0,0 l/m 0 min 0 min 0,0 UV-I 0 W/m 23,2 km/h (4 Bft)
24.02.2014 07:08 3,6 C 1,7 C 88 % 1013,8 hPa 0,0 l/m 0 min 0 min 0,0 UV-I 0 W/m 12,9 km/h (3 Bft)
24.02.2014 07:10 3,6 C 1,7 C 88 % 1013,7 hPa 0,0 l/m 0 min 0 min 0,0 UV-I 0 W/m 15,4 km/h (3 Bft)
24.02.2014 07:12 3,6 C 1,7 C 88 % 1013,6 hPa 0,0 l/m 0 min 0 min 0,0 UV-I 0 W/m 15,4 km/h (3 Bft)
24.02.2014 07:14 3,6 C 1,7 C 88 % 1013,7 hPa 0,0 l/m 0 min 0 min 0,0 UV-I 5 W/m 15,4 km/h (3 Bft)
24.02.2014 07:16 3,7 C 2,2 C 88 % 1013,8 hPa 0,0 l/m 0 min 0 min 0,0 UV-I 5 W/m 12,9 km/h (3 Bft)
24.02.2014 07:18 3,7 C 1,7 C 87 % 1013,7 hPa 0,0 l/m 0 min 0 min 0,0 UV-I 5 W/m 15,4 km/h (3 Bft)
24.02.2014 07:20 3,6 C 1,7 C 87 % 1013,7 hPa 0,0 l/m 0 min 0 min 0,0 UV-I 7 W/m 7,7 km/h (2 Bft)
24.02.2014 07:22 3,6 C 1,7 C 87 % 1013,7 hPa 0,0 l/m 0 min 0 min 0,0 UV-I 7 W/m 18,0 km/h (3 Bft)
24.02.2014 07:24 3,6 C 1,7 C 87 % 1013,8 hPa 0,0 l/m 0 min 0 min 0,0 UV-I 7 W/m 10,3 km/h (2 Bft)
24.02.2014 07:26 3,6 C 2,2 C 87 % 1013,8 hPa 0,0 l/m 0 min 0 min 0,0 UV-I 7 W/m 18,0 km/h (3 Bft)
24.02.2014 07:28 3,7 C 2,2 C 87 % 1013,9 hPa 0,0 l/m 0 min 0 min 0,0 UV-I 7 W/m 7,7 km/h (2 Bft)
24.02.2014 07:30 3,7 C 2,2 C 87 % 1013,7 hPa 0,0 l/m 0 min 0 min 0,0 UV-I 7 W/m 12,9 km/h (3 Bft)
24.02.2014 07:32 3,7 C 2,2 C 87 % 1013,8 hPa 0,0 l/m 0 min 0 min 0,0 UV-I 7 W/m 7,7 km/h (2 Bft)
24.02.2014 07:34 3,6 C 1,7 C 87 % 1014,0 hPa 0,0 l/m 0 min 0 min 0,0 UV-I 7 W/m 7,7 km/h (2 Bft)
24.02.2014 07:36 3,6 C 2,2 C 87 % 1013,9 hPa 0,0 l/m 0 min 0 min 0,0 UV-I 9 W/m 18,0 km/h (3 Bft)
24.02.2014 07:38 3,6 C 1,7 C 87 % 1014,0 hPa 0,0 l/m 0 min 0 min 0,0 UV-I 11 W/m 7,7 km/h (2 Bft)
24.02.2014 07:40 3,6 C 1,7 C 87 % 1014,0 hPa 0,0 l/m 0 min 0 min 0,0 UV-I 11 W/m 7,7 km/h (2 Bft)
24.02.2014 07:42 3,6 C 1,7 C 87 % 1014,0 hPa 0,0 l/m 0 min 0 min 0,0 UV-I 14 W/m 12,9 km/h (3 Bft)
24.02.2014 07:44 3,6 C 2,2 C 87 % 1013,9 hPa 0,0 l/m 0 min 0 min 0,0 UV-I 16 W/m 5,1 km/h (1 Bft)
24.02.2014 07:46 3,6 C 2,2 C 87 % 1013,9 hPa 0,0 l/m 0 min 0 min 0,0 UV-I 18 W/m 15,4 km/h (3 Bft)
24.02.2014 07:48 3,6 C 2,2 C 87 % 1013,9 hPa 0,0 l/m 0 min 0 min 0,0 UV-I 19 W/m 15,4 km/h (3 Bft)
24.02.2014 07:50 3,6 C 2,2 C 87 % 1014,0 hPa 0,0 l/m 0 min 0 min 0,0 UV-I 21 W/m 20,6 km/h (4 Bft)
24.02.2014 07:52 3,7 C 2,2 C 87 % 1013,9 hPa 0,0 l/m 0 min 0 min 0,0 UV-I 23 W/m 25,7 km/h (4 Bft)
24.02.2014 07:54 3,7 C 2,2 C 87 % 1014,0 hPa 0,0 l/m 0 min 0 min 0,0 UV-I 26 W/m 18,0 km/h (3 Bft)
24.02.2014 07:56 3,7 C 2,2 C 87 % 1014,0 hPa 0,0 l/m 0 min 0 min 0,0 UV-I 28 W/m 12,9 km/h (3 Bft)
24.02.2014 07:58 3,8 C 2,2 C 87 % 1014,1 hPa 0,0 l/m 0 min 0 min 0,0 UV-I 28 W/m 28,3 km/h (4 Bft)
24.02.2014 08:00 3,8 C 2,2 C 87 % 1014,1 hPa 0,0 l/m 0 min 0 min 0,0 UV-I 32 W/m 23,2 km/h (4 Bft)
24.02.2014 08:02 3,9 C 2,2 C 87 % 1014,1 hPa 0,0 l/m 0 min 0 min 0,0 UV-I 33 W/m 20,6 km/h (4 Bft)
24.02.2014 08:04 3,9 C 2,2 C 87 % 1014,1 hPa 0,0 l/m 0 min 0 min 0,0 UV-I 35 W/m 12,9 km/h (3 Bft)
24.02.2014 08:06 3,9 C 2,2 C 87 % 1014,1 hPa 0,0 l/m 0 min 0 min 0,0 UV-I 37 W/m 10,3 km/h (2 Bft)
24.02.2014 08:08 3,9 C 2,2 C 87 % 1014,1 hPa 0,0 l/m 0 min 0 min 0,0 UV-I 39 W/m 25,7 km/h (4 Bft)
24.02.2014 08:10 3,9 C 2,2 C 87 % 1014,1 hPa 0,0 l/m 0 min 0 min 0,0 UV-I 39 W/m 18,0 km/h (3 Bft)
24.02.2014 08:12 4,0 C 2,2 C 87 % 1014,1 hPa 0,0 l/m 0 min 0 min 0,0 UV-I 42 W/m 20,6 km/h (4 Bft)
24.02.2014 08:14 4,0 C 2,2 C 87 % 1014,1 hPa 0,0 l/m 0 min 0 min 0,0 UV-I 44 W/m 18,0 km/h (3 Bft)
24.02.2014 08:16 4,0 C 2,8 C 87 % 1014,1 hPa 0,0 l/m 0 min 0 min 0,0 UV-I 46 W/m 20,6 km/h (4 Bft)
24.02.2014 08:18 4,1 C 2,8 C 86 % 1014,2 hPa 0,0 l/m 0 min 0 min 0,0 UV-I 47 W/m 18,0 km/h (3 Bft)
24.02.2014 08:20 4,1 C 2,8 C 86 % 1014,2 hPa 0,0 l/m 0 min 0 min 0,0 UV-I 49 W/m 18,0 km/h (3 Bft)
24.02.2014 08:22 4,1 C 2,8 C 86 % 1014,2 hPa 0,0 l/m 0 min 0 min 0,0 UV-I 51 W/m 15,4 km/h (3 Bft)
24.02.2014 08:24 4,2 C 2,8 C 86 % 1014,2 hPa 0,0 l/m 0 min 0 min 0,0 UV-I 53 W/m 18,0 km/h (3 Bft)
24.02.2014 08:26 4,2 C 2,8 C 91 % 1014,2 hPa 0,0 l/m 0 min 0 min 0,0 UV-I 54 W/m 12,9 km/h (3 Bft)
24.02.2014 08:28 4,2 C 2,8 C 86 % 1014,2 hPa 0,0 l/m 0 min 0 min 0,0 UV-I 56 W/m 23,2 km/h (4 Bft)
24.02.2014 08:30 4,2 C 2,8 C 86 % 1014,2 hPa 0,0 l/m 0 min 0 min 0,0 UV-I 60 W/m 23,2 km/h (4 Bft)
24.02.2014 08:32 4,3 C 2,8 C 86 % 1014,2 hPa 0,0 l/m 0 min 0 min 0,0 UV-I 62 W/m 15,4 km/h (3 Bft)
24.02.2014 08:34 4,3 C 2,8 C 86 % 1014,1 hPa 0,0 l/m 0 min 0 min 0,0 UV-I 65 W/m 25,7 km/h (4 Bft)
24.02.2014 08:36 4,3 C 2,8 C 86 % 1014,1 hPa 0,0 l/m 0 min 0 min 0,0 UV-I 79 W/m 18,0 km/h (3 Bft)
24.02.2014 08:38 4,4 C 2,8 C 86 % 1014,1 hPa 0,0 l/m 2 min 0 min 0,0 UV-I 95 W/m 20,6 km/h (4 Bft)
24.02.2014 08:40 4,4 C 3,3 C 86 % 1014,1 hPa 0,0 l/m 2 min 0 min 0,0 UV-I 98 W/m 23,2 km/h (4 Bft)
24.02.2014 08:42 4,4 C 3,3 C 86 % 1014,2 hPa 0,0 l/m 2 min 0 min 0,0 UV-I 100 W/m 20,6 km/h (4 Bft)
24.02.2014 08:44 4,5 C 3,3 C 85 % 1014,2 hPa 0,0 l/m 2 min 0 min 0,0 UV-I 104 W/m 15,4 km/h (3 Bft)
24.02.2014 08:46 4,5 C 3,3 C 85 % 1014,2 hPa 0,0 l/m 2 min 0 min 0,0 UV-I 109 W/m 15,4 km/h (3 Bft)
24.02.2014 08:48 4,6 C 3,3 C 85 % 1014,2 hPa 0,0 l/m 2 min 0 min 0,0 UV-I 109 W/m 15,4 km/h (3 Bft)
24.02.2014 08:50 4,6 C 3,3 C 85 % 1014,2 hPa 0,0 l/m 2 min 0 min 0,0 UV-I 109 W/m 18,0 km/h (3 Bft)
24.02.2014 08:52 4,7 C 3,3 C 85 % 1014,2 hPa 0,0 l/m 2 min 0 min 0,0 UV-I 120 W/m 20,6 km/h (4 Bft)
24.02.2014 08:54 4,7 C 3,3 C 85 % 1014,2 hPa 0,0 l/m 2 min 0 min 0,0 UV-I 114 W/m 15,4 km/h (3 Bft)
24.02.2014 08:56 4,7 C 3,3 C 85 % 1014,2 hPa 0,0 l/m 2 min 0 min 0,0 UV-I 120 W/m 23,2 km/h (4 Bft)
24.02.2014 08:58 4,8 C 3,3 C 85 % 1014,2 hPa 0,0 l/m 2 min 0 min 0,0 UV-I 130 W/m 10,3 km/h (2 Bft)
24.02.2014 09:00 4,8 C 3,3 C 85 % 1014,2 hPa 0,0 l/m 2 min 0 min 0,0 UV-I 137 W/m 20,6 km/h (4 Bft)
24.02.2014 09:02 4,9 C 3,9 C 84 % 1014,2 hPa 0,0 l/m 2 min 0 min 0,0 UV-I 144 W/m 23,2 km/h (4 Bft)
24.02.2014 09:04 4,9 C 3,9 C 84 % 1014,1 hPa 0,0 l/m 2 min 0 min 0,0 UV-I 158 W/m 25,7 km/h (4 Bft)
24.02.2014 09:06 4,9 C 3,9 C 84 % 1014,1 hPa 0,0 l/m 2 min 0 min 0,0 UV-I 162 W/m 20,6 km/h (4 Bft)
24.02.2014 09:08 5,0 C 3,9 C 84 % 1014,1 hPa 0,0 l/m 2 min 0 min 0,0 UV-I 167 W/m 20,6 km/h (4 Bft)
24.02.2014 09:10 5,1 C 3,9 C 84 % 1014,1 hPa 0,0 l/m 2 min 0 min 0,0 UV-I 181 W/m 25,7 km/h (4 Bft)
24.02.2014 09:12 5,1 C 3,9 C 84 % 1014,1 hPa 0,0 l/m 2 min 0 min 0,0 UV-I 185 W/m 18,0 km/h (3 Bft)
24.02.2014 09:14 5,2 C 3,9 C 84 % 1014,0 hPa 0,0 l/m 2 min 0 min 0,0 UV-I 186 W/m 23,2 km/h (4 Bft)
24.02.2014 09:16 5,2 C 3,9 C 84 % 1014,0 hPa 0,0 l/m 2 min 0 min 0,0 UV-I 200 W/m 28,3 km/h (4 Bft)
24.02.2014 09:18 5,3 C 3,9 C 83 % 1014,0 hPa 0,0 l/m 2 min 0 min 0,0 UV-I 200 W/m 25,7 km/h (4 Bft)
24.02.2014 09:20 5,4 C 4,4 C 83 % 1014,0 hPa 0,0 l/m 2 min 0 min 0,0 UV-I 192 W/m 33,5 km/h (5 Bft)
24.02.2014 09:22 5,4 C 4,4 C 83 % 1014,0 hPa 0,0 l/m 2 min 0 min 0,0 UV-I 199 W/m 18,0 km/h (3 Bft)
24.02.2014 09:24 5,6 C 4,4 C 83 % 1013,9 hPa 0,0 l/m 2 min 0 min 0,0 UV-I 214 W/m 15,4 km/h (3 Bft)
24.02.2014 09:26 5,7 C 4,4 C 83 % 1013,9 hPa 0,0 l/m 2 min 0 min 0,0 UV-I 216 W/m 12,9 km/h (3 Bft)
24.02.2014 09:28 5,8 C 4,4 C 83 % 1013,7 hPa 0,0 l/m 2 min 0 min 0,0 UV-I 213 W/m 28,3 km/h (4 Bft)
24.02.2014 09:30 5,8 C 4,4 C 82 % 1013,7 hPa 0,0 l/m 2 min 0 min 0,0 UV-I 214 W/m 23,2 km/h (4 Bft)
24.02.2014 09:32 5,9 C 4,4 C 82 % 1013,8 hPa 0,0 l/m 2 min 0 min 0,0 UV-I 202 W/m 20,6 km/h (4 Bft)
24.02.2014 09:34 6,0 C 4,4 C 82 % 1013,7 hPa 0,0 l/m 2 min 0 min 0,0 UV-I 225 W/m 20,6 km/h (4 Bft)
24.02.2014 09:36 6,1 C 4,4 C 81 % 1013,7 hPa 0,0 l/m 2 min 0 min 0,0 UV-I 214 W/m 23,2 km/h (4 Bft)
24.02.2014 09:38 6,2 C 4,4 C 81 % 1013,6 hPa 0,0 l/m 2 min 0 min 0,0 UV-I 193 W/m 25,7 km/h (4 Bft)
24.02.2014 09:40 6,2 C 4,4 C 81 % 1013,7 hPa 0,0 l/m 2 min 0 min 0,0 UV-I 209 W/m 23,2 km/h (4 Bft)
24.02.2014 09:42 6,2 C 5,0 C 81 % 1013,7 hPa 0,0 l/m 2 min 0 min 0,0 UV-I 220 W/m 18,0 km/h (3 Bft)
24.02.2014 09:44 6,3 C 5,0 C 81 % 1013,8 hPa 0,0 l/m 2 min 0 min 0,0 UV-I 232 W/m 23,2 km/h (4 Bft)
24.02.2014 09:46 6,4 C 5,0 C 80 % 1013,8 hPa 0,0 l/m 2 min 0 min 0,0 UV-I 236 W/m 18,0 km/h (3 Bft)
24.02.2014 09:48 6,4 C 5,0 C 80 % 1013,9 hPa 0,0 l/m 2 min 0 min 0,0 UV-I 243 W/m 20,6 km/h (4 Bft)
24.02.2014 09:50 6,5 C 5,0 C 80 % 1014,0 hPa 0,0 l/m 2 min 0 min 0,0 UV-I 251 W/m 41,2 km/h (6 Bft)
24.02.2014 09:52 6,6 C 5,0 C 80 % 1013,9 hPa 0,0 l/m 2 min 0 min 0,0 UV-I 237 W/m 18,0 km/h (3 Bft)
24.02.2014 09:54 6,7 C 5,0 C 80 % 1013,8 hPa 0,0 l/m 2 min 0 min 0,0 UV-I 244 W/m 18,0 km/h (3 Bft)
24.02.2014 09:56 6,7 C 5,0 C 79 % 1013,8 hPa 0,0 l/m 2 min 0 min 0,0 UV-I 258 W/m 20,6 km/h (4 Bft)
24.02.2014 09:58 6,7 C 5,0 C 79 % 1013,9 hPa 0,0 l/m 2 min 0 min 0,0 UV-I 260 W/m 23,2 km/h (4 Bft)
24.02.2014 10:00 6,8 C 5,6 C 79 % 1013,8 hPa 0,0 l/m 2 min 0 min 0,0 UV-I 272 W/m 23,2 km/h (4 Bft)
24.02.2014 10:02 6,9 C 5,6 C 78 % 1013,6 hPa 0,0 l/m 2 min 0 min 0,0 UV-I 290 W/m 18,0 km/h (3 Bft)
24.02.2014 10:04 7,0 C 5,6 C 78 % 1013,7 hPa 0,0 l/m 2 min 0 min 0,0 UV-I 294 W/m 25,7 km/h (4 Bft)
24.02.2014 10:06 7,1 C 5,6 C 78 % 1013,6 hPa 0,0 l/m 2 min 0 min 0,0 UV-I 290 W/m 15,4 km/h (3 Bft)
24.02.2014 10:08 7,1 C 5,6 C 78 % 1013,6 hPa 0,0 l/m 2 min 0 min 0,0 UV-I 292 W/m 25,7 km/h (4 Bft)
24.02.2014 10:10 7,2 C 5,6 C 78 % 1013,6 hPa 0,0 l/m 2 min 0 min 0,0 UV-I 299 W/m 18,0 km/h (3 Bft)
24.02.2014 10:12 7,3 C 5,6 C 78 % 1013,5 hPa 0,0 l/m 2 min 0 min 0,0 UV-I 294 W/m 18,0 km/h (3 Bft)
24.02.2014 10:14 7,3 C 6,1 C 77 % 1013,5 hPa 0,0 l/m 2 min 0 min 0,0 UV-I 287 W/m 25,7 km/h (4 Bft)
24.02.2014 10:16 7,4 C 6,1 C 77 % 1013,4 hPa 0,0 l/m 2 min 0 min 0,0 UV-I 315 W/m 18,0 km/h (3 Bft)
24.02.2014 10:18 7,6 C 6,1 C 77 % 1013,5 hPa 0,0 l/m 2 min 0 min 0,0 UV-I 308 W/m 20,6 km/h (4 Bft)
24.02.2014 10:20 7,7 C 6,1 C 77 % 1013,4 hPa 0,0 l/m 2 min 0 min 0,0 UV-I 308 W/m 15,4 km/h (3 Bft)
24.02.2014 10:22 7,7 C 6,1 C 77 % 1013,4 hPa 0,0 l/m 2 min 0 min 0,0 UV-I 315 W/m 12,9 km/h (3 Bft)
24.02.2014 10:24 7,8 C 6,7 C 76 % 1013,4 hPa 0,0 l/m 2 min 0 min 0,0 UV-I 309 W/m 28,3 km/h (4 Bft)
24.02.2014 10:26 7,8 C 6,7 C 76 % 1013,4 hPa 0,0 l/m 2 min 0 min 0,0 UV-I 313 W/m 28,3 km/h (4 Bft)
24.02.2014 10:28 7,9 C 6,7 C 75 % 1013,4 hPa 0,0 l/m 2 min 0 min 0,0 UV-I 315 W/m 23,2 km/h (4 Bft)
24.02.2014 10:30 7,9 C 6,7 C 75 % 1013,3 hPa 0,0 l/m 2 min 0 min 0,0 UV-I 308 W/m 33,5 km/h (5 Bft)
24.02.2014 10:32 8,0 C 6,7 C 75 % 1013,3 hPa 0,0 l/m 2 min 0 min 0,0 UV-I 258 W/m 25,7 km/h (4 Bft)
24.02.2014 10:34 8,0 C 6,7 C 75 % 1013,1 hPa 0,0 l/m 2 min 0 min 0,0 UV-I 288 W/m 20,6 km/h (4 Bft)
24.02.2014 10:36 8,0 C 6,7 C 75 % 1013,2 hPa 0,0 l/m 2 min 0 min 0,0 UV-I 308 W/m 25,7 km/h (4 Bft)
24.02.2014 10:38 8,1 C 6,7 C 75 % 1013,1 hPa 0,0 l/m 2 min 0 min 0,0 UV-I 345 W/m 25,7 km/h (4 Bft)
24.02.2014 10:40 8,2 C 6,7 C 75 % 1013,1 hPa 0,0 l/m 2 min 0 min 0,0 UV-I 350 W/m 25,7 km/h (4 Bft)
24.02.2014 10:42 8,3 C 6,7 C 75 % 1013,1 hPa 0,0 l/m 2 min 0 min 0,0 UV-I 332 W/m 25,7 km/h (4 Bft)
24.02.2014 10:44 8,4 C 6,7 C 74 % 1013,1 hPa 0,0 l/m 2 min 0 min 0,0 UV-I 338 W/m 23,2 km/h (4 Bft)
24.02.2014 10:46 8,4 C 7,2 C 74 % 1013,0 hPa 0,0 l/m 2 min 0 min 0,0 UV-I 308 W/m 23,2 km/h (4 Bft)
24.02.2014 10:48 8,6 C 7,2 C 74 % 1013,0 hPa 0,0 l/m 2 min 0 min 0,0 UV-I 355 W/m 20,6 km/h (4 Bft)
24.02.2014 10:50 8,7 C 7,2 C 74 % 1013,0 hPa 0,0 l/m 2 min 0 min 0,0 UV-I 352 W/m 23,2 km/h (4 Bft)
24.02.2014 10:52 8,7 C 7,2 C 73 % 1013,0 hPa 0,0 l/m 2 min 0 min 0,0 UV-I 359 W/m 30,9 km/h (5 Bft)
24.02.2014 10:54 8,7 C 7,2 C 73 % 1013,0 hPa 0,0 l/m 2 min 0 min 0,0 UV-I 350 W/m 23,2 km/h (4 Bft)
24.02.2014 10:56 8,8 C 7,2 C 73 % 1013,0 hPa 0,0 l/m 2 min 0 min 0,0 UV-I 345 W/m 33,5 km/h (5 Bft)
24.02.2014 10:58 8,8 C 7,2 C 72 % 1013,0 hPa 0,0 l/m 2 min 0 min 0,0 UV-I 346 W/m 30,9 km/h (5 Bft)
24.02.2014 11:00 8,9 C 7,2 C 73 % 1013,0 hPa 0,0 l/m 2 min 0 min 0,0 UV-I 350 W/m 28,3 km/h (4 Bft)
24.02.2014 11:02 8,9 C 7,8 C 72 % 1013,0 hPa 0,0 l/m 2 min 0 min 0,0 UV-I 350 W/m 33,5 km/h (5 Bft)
24.02.2014 11:04 9,1 C 7,8 C 72 % 1012,9 hPa 0,0 l/m 2 min 0 min 0,0 UV-I 332 W/m 18,0 km/h (3 Bft)
24.02.2014 11:06 9,2 C 7,8 C 72 % 1013,0 hPa 0,0 l/m 2 min 0 min 0,0 UV-I 350 W/m 20,6 km/h (4 Bft)
24.02.2014 11:08 9,2 C 7,8 C 72 % 1013,0 hPa 0,0 l/m 2 min 0 min 0,0 UV-I 341 W/m 23,2 km/h (4 Bft)
24.02.2014 11:10 9,3 C 7,8 C 72 % 1012,9 hPa 0,0 l/m 2 min 0 min 0,0 UV-I 355 W/m 23,2 km/h (4 Bft)
24.02.2014 11:12 9,3 C 7,8 C 71 % 1012,9 hPa 0,0 l/m 2 min 0 min 0,0 UV-I 374 W/m 28,3 km/h (4 Bft)
24.02.2014 11:14 9,4 C 8,3 C 71 % 1012,9 hPa 0,0 l/m 2 min 0 min 0,0 UV-I 364 W/m 20,6 km/h (4 Bft)
24.02.2014 11:16 9,4 C 8,3 C 71 % 1012,9 hPa 0,0 l/m 2 min 0 min 0,0 UV-I 330 W/m 28,3 km/h (4 Bft)
24.02.2014 11:18 9,5 C 8,3 C 71 % 1012,9 hPa 0,0 l/m 2 min 0 min 0,0 UV-I 376 W/m 28,3 km/h (4 Bft)
24.02.2014 11:20 9,6 C 8,3 C 71 % 1012,8 hPa 0,0 l/m 2 min 0 min 0,5 UV-I 403 W/m 28,3 km/h (4 Bft)
24.02.2014 11:22 9,7 C 8,3 C 71 % 1012,9 hPa 0,0 l/m 2 min 0 min 0,5 UV-I 408 W/m 25,7 km/h (4 Bft)
24.02.2014 11:24 9,8 C 8,3 C 71 % 1012,9 hPa 0,0 l/m 2 min 0 min 0,5 UV-I 410 W/m 18,0 km/h (3 Bft)
24.02.2014 11:26 10,0 C 8,9 C 71 % 1012,9 hPa 0,0 l/m 2 min 0 min 0,5 UV-I 417 W/m 23,2 km/h (4 Bft)
24.02.2014 11:28 10,1 C 8,9 C 70 % 1012,9 hPa 0,0 l/m 2 min 0 min 0,5 UV-I 411 W/m 23,2 km/h (4 Bft)
24.02.2014 11:30 10,1 C 8,9 C 70 % 1012,9 hPa 0,0 l/m 2 min 0 min 0,5 UV-I 388 W/m 28,3 km/h (4 Bft)
24.02.2014 11:32 10,3 C 8,9 C 69 % 1012,8 hPa 0,0 l/m 2 min 0 min 0,0 UV-I 355 W/m 20,6 km/h (4 Bft)
24.02.2014 11:34 10,4 C 8,9 C 70 % 1012,8 hPa 0,0 l/m 2 min 0 min 0,0 UV-I 320 W/m 15,4 km/h (3 Bft)
24.02.2014 11:36 10,4 C 8,9 C 69 % 1012,8 hPa 0,0 l/m 2 min 0 min 0,0 UV-I 371 W/m 15,4 km/h (3 Bft)
24.02.2014 11:38 10,6 C 8,9 C 69 % 1012,8 hPa 0,0 l/m 2 min 0 min 0,5 UV-I 373 W/m 33,5 km/h (5 Bft)
24.02.2014 11:40 10,6 C 8,9 C 68 % 1012,8 hPa 0,0 l/m 2 min 0 min 0,5 UV-I 360 W/m 30,9 km/h (5 Bft)
24.02.2014 11:42 10,5 C 8,9 C 68 % 1012,9 hPa 0,0 l/m 2 min 0 min 0,5 UV-I 394 W/m 28,3 km/h (4 Bft)
24.02.2014 11:44 10,6 C 9,4 C 68 % 1012,9 hPa 0,0 l/m 2 min 0 min 0,5 UV-I 376 W/m 25,7 km/h (4 Bft)
24.02.2014 11:46 10,7 C 9,4 C 68 % 1012,7 hPa 0,0 l/m 2 min 0 min 0,5 UV-I 380 W/m 23,2 km/h (4 Bft)
24.02.2014 11:48 10,7 C 9,4 C 68 % 1012,8 hPa 0,0 l/m 2 min 0 min 0,0 UV-I 352 W/m 20,6 km/h (4 Bft)
24.02.2014 11:50 10,6 C 9,4 C 68 % 1012,8 hPa 0,0 l/m 2 min 0 min 0,0 UV-I 355 W/m 18,0 km/h (3 Bft)
24.02.2014 11:52 10,7 C 9,4 C 68 % 1012,7 hPa 0,0 l/m 2 min 0 min 0,0 UV-I 383 W/m 18,0 km/h (3 Bft)
24.02.2014 11:54 10,8 C 9,4 C 68 % 1012,7 hPa 0,0 l/m 2 min 0 min 0,0 UV-I 411 W/m 28,3 km/h (4 Bft)
24.02.2014 11:56 10,9 C 9,4 C 67 % 1012,7 hPa 0,0 l/m 2 min 0 min 0,0 UV-I 420 W/m 23,2 km/h (4 Bft)
24.02.2014 11:58 11,0 C 10,0 C 67 % 1012,7 hPa 0,0 l/m 2 min 0 min 0,0 UV-I 408 W/m 18,0 km/h (3 Bft)
24.02.2014 12:00 11,1 C 10,0 C 67 % 1012,6 hPa 0,0 l/m 2 min 0 min 0,0 UV-I 431 W/m 28,3 km/h (4 Bft)
24.02.2014 12:02 11,1 C 10,0 C 66 % 1012,7 hPa 0,0 l/m 2 min 0 min 0,0 UV-I 413 W/m 41,2 km/h (6 Bft)
24.02.2014 12:04 11,2 C 10,0 C 66 % 1012,7 hPa 0,0 l/m 2 min 0 min 0,0 UV-I 420 W/m 25,7 km/h (4 Bft)
24.02.2014 12:06 11,2 C 10,0 C 66 % 1012,7 hPa 0,0 l/m 2 min 0 min 0,0 UV-I 443 W/m 33,5 km/h (5 Bft)
24.02.2014 12:08 11,3 C 10,0 C 65 % 1012,7 hPa 0,0 l/m 2 min 0 min 0,0 UV-I 441 W/m 25,7 km/h (4 Bft)
24.02.2014 12:10 11,3 C 10,0 C 65 % 1012,7 hPa 0,0 l/m 2 min 0 min 0,0 UV-I 434 W/m 25,7 km/h (4 Bft)
24.02.2014 12:12 11,3 C 10,0 C 65 % 1012,7 hPa 0,0 l/m 2 min 0 min 0,0 UV-I 410 W/m 28,3 km/h (4 Bft)
24.02.2014 12:14 11,4 C 10,0 C 65 % 1012,6 hPa 0,0 l/m 2 min 0 min 0,0 UV-I 445 W/m 28,3 km/h (4 Bft)
24.02.2014 12:16 11,4 C 10,0 C 65 % 1012,7 hPa 0,0 l/m 2 min 0 min 0,0 UV-I 450 W/m 23,2 km/h (4 Bft)
24.02.2014 12:18 11,5 C 10,0 C 65 % 1012,6 hPa 0,0 l/m 2 min 0 min 0,0 UV-I 443 W/m 28,3 km/h (4 Bft)
24.02.2014 12:20 11,6 C 10,6 C 65 % 1012,6 hPa 0,0 l/m 2 min 0 min 0,0 UV-I 461 W/m 20,6 km/h (4 Bft)
24.02.2014 12:22 11,7 C 10,6 C 65 % 1012,5 hPa 0,0 l/m 2 min 0 min 0,0 UV-I 434 W/m 23,2 km/h (4 Bft)
24.02.2014 12:24 11,7 C 10,6 C 65 % 1012,4 hPa 0,0 l/m 2 min 0 min 0,0 UV-I 404 W/m 12,9 km/h (3 Bft)
24.02.2014 12:26 11,8 C 10,6 C 66 % 1012,4 hPa 0,0 l/m 2 min 0 min 0,0 UV-I 388 W/m 20,6 km/h (4 Bft)
24.02.2014 12:28 11,8 C 10,6 C 64 % 1012,3 hPa 0,0 l/m 2 min 0 min 0,0 UV-I 387 W/m 25,7 km/h (4 Bft)
24.02.2014 12:30 11,8 C 10,6 C 65 % 1012,3 hPa 0,0 l/m 2 min 0 min 0,0 UV-I 374 W/m 23,2 km/h (4 Bft)
24.02.2014 12:32 11,8 C 10,6 C 65 % 1012,2 hPa 0,0 l/m 2 min 0 min 0,0 UV-I 369 W/m 23,2 km/h (4 Bft)
24.02.2014 12:34 11,8 C 10,6 C 65 % 1012,3 hPa 0,0 l/m 2 min 0 min 0,0 UV-I 378 W/m 20,6 km/h (4 Bft)
24.02.2014 12:36 11,9 C 10,6 C 66 % 1012,2 hPa 0,0 l/m 2 min 0 min 0,0 UV-I 367 W/m 15,4 km/h (3 Bft)
24.02.2014 12:38 11,9 C 10,6 C 65 % 1012,2 hPa 0,0 l/m 2 min 0 min 0,0 UV-I 374 W/m 28,3 km/h (4 Bft)
24.02.2014 12:40 11,9 C 10,6 C 65 % 1012,2 hPa 0,0 l/m 2 min 0 min 0,0 UV-I 352 W/m 23,2 km/h (4 Bft)
24.02.2014 12:42 12,0 C 10,6 C 65 % 1012,3 hPa 0,0 l/m 2 min 0 min 0,0 UV-I 322 W/m 18,0 km/h (3 Bft)
24.02.2014 12:44 12,1 C 10,6 C 65 % 1012,2 hPa 0,0 l/m 2 min 0 min 0,0 UV-I 367 W/m 18,0 km/h (3 Bft)
24.02.2014 12:46 12,1 C 10,6 C 65 % 1012,2 hPa 0,0 l/m 2 min 0 min 0,5 UV-I 425 W/m 20,6 km/h (4 Bft)
24.02.2014 12:48 12,2 C 11,1 C 65 % 1012,1 hPa 0,0 l/m 2 min 0 min 0,5 UV-I 360 W/m 18,0 km/h (3 Bft)
24.02.2014 12:50 12,4 C 11,1 C 65 % 1012,1 hPa 0,0 l/m 2 min 0 min 0,6 UV-I 388 W/m 18,0 km/h (3 Bft)
24.02.2014 12:52 12,4 C 11,1 C 64 % 1012,0 hPa 0,0 l/m 2 min 0 min 0,6 UV-I 415 W/m 20,6 km/h (4 Bft)
24.02.2014 12:54 12,5 C 11,1 C 63 % 1012,0 hPa 0,0 l/m 2 min 0 min 0,7 UV-I 432 W/m 28,3 km/h (4 Bft)
24.02.2014 12:56 12,6 C 11,1 C 64 % 1012,0 hPa 0,0 l/m 2 min 0 min 0,7 UV-I 459 W/m 15,4 km/h (3 Bft)
24.02.2014 12:58 12,7 C 11,1 C 64 % 1011,9 hPa 0,0 l/m 2 min 0 min 0,6 UV-I 401 W/m 12,9 km/h (3 Bft)
24.02.2014 13:00 12,7 C 11,1 C 64 % 1012,0 hPa 0,0 l/m 2 min 0 min 0,7 UV-I 424 W/m 20,6 km/h (4 Bft)
24.02.2014 13:02 12,8 C 11,1 C 63 % 1012,0 hPa 0,0 l/m 2 min 0 min 0,6 UV-I 422 W/m 25,7 km/h (4 Bft)
24.02.2014 13:04 12,8 C 11,1 C 63 % 1011,9 hPa 0,0 l/m 2 min 0 min 0,7 UV-I 399 W/m 23,2 km/h (4 Bft)
24.02.2014 13:06 12,8 C 11,1 C 62 % 1011,8 hPa 0,0 l/m 2 min 0 min 0,7 UV-I 411 W/m 12,9 km/h (3 Bft)
24.02.2014 13:08 12,9 C 11,7 C 62 % 1011,8 hPa 0,0 l/m 2 min 0 min 0,7 UV-I 475 W/m 15,4 km/h (3 Bft)
24.02.2014 13:10 13,1 C 11,7 C 62 % 1011,8 hPa 0,0 l/m 2 min 0 min 0,7 UV-I 466 W/m 10,3 km/h (2 Bft)
24.02.2014 13:12 13,2 C 11,7 C 61 % 1011,7 hPa 0,0 l/m 2 min 0 min 0,7 UV-I 464 W/m 15,4 km/h (3 Bft)
24.02.2014 13:14 13,2 C 11,7 C 62 % 1011,6 hPa 0,0 l/m 2 min 0 min 0,7 UV-I 425 W/m 20,6 km/h (4 Bft)
24.02.2014 13:16 13,1 C 11,7 C 62 % 1011,5 hPa 0,0 l/m 2 min 0 min 0,7 UV-I 464 W/m 18,0 km/h (3 Bft)
24.02.2014 13:18 13,1 C 11,7 C 62 % 1011,6 hPa 0,0 l/m 2 min 0 min 0,7 UV-I 455 W/m 33,5 km/h (5 Bft)
24.02.2014 13:20 13,1 C 11,7 C 61 % 1011,6 hPa 0,0 l/m 2 min 0 min 0,7 UV-I 457 W/m 23,2 km/h (4 Bft)
24.02.2014 13:22 13,1 C 11,7 C 62 % 1011,6 hPa 0,0 l/m 2 min 0 min 0,7 UV-I 441 W/m 20,6 km/h (4 Bft)
24.02.2014 13:24 13,1 C 11,7 C 61 % 1011,6 hPa 0,0 l/m 2 min 0 min 0,7 UV-I 434 W/m 25,7 km/h (4 Bft)
24.02.2014 13:26 13,1 C 11,7 C 62 % 1011,6 hPa 0,0 l/m 2 min 0 min 0,7 UV-I 431 W/m 28,3 km/h (4 Bft)
24.02.2014 13:28 13,1 C 11,7 C 62 % 1011,6 hPa 0,0 l/m 2 min 0 min 0,7 UV-I 431 W/m 18,0 km/h (3 Bft)
24.02.2014 13:30 13,2 C 11,7 C 62 % 1011,6 hPa 0,0 l/m 2 min 0 min 0,7 UV-I 432 W/m 15,4 km/h (3 Bft)
24.02.2014 13:32 13,4 C 11,7 C 61 % 1011,5 hPa 0,0 l/m 2 min 0 min 0,6 UV-I 431 W/m 15,4 km/h (3 Bft)
24.02.2014 13:34 13,4 C 11,7 C 61 % 1011,6 hPa 0,0 l/m 2 min 0 min 0,6 UV-I 424 W/m 20,6 km/h (4 Bft)
24.02.2014 13:36 13,4 C 11,7 C 62 % 1011,6 hPa 0,0 l/m 2 min 0 min 0,7 UV-I 431 W/m 18,0 km/h (3 Bft)
24.02.2014 13:38 13,4 C 11,7 C 60 % 1011,6 hPa 0,0 l/m 2 min 0 min 0,6 UV-I 429 W/m 20,6 km/h (4 Bft)
24.02.2014 13:40 13,5 C 11,7 C 61 % 1011,7 hPa 0,0 l/m 2 min 0 min 0,7 UV-I 436 W/m 23,2 km/h (4 Bft)
24.02.2014 13:42 13,6 C 11,7 C 61 % 1011,6 hPa 0,0 l/m 2 min 0 min 0,6 UV-I 420 W/m 10,3 km/h (2 Bft)
24.02.2014 13:44 13,7 C 11,7 C 61 % 1011,5 hPa 0,0 l/m 2 min 0 min 0,6 UV-I 420 W/m 18,0 km/h (3 Bft)
24.02.2014 13:46 13,8 C 12,2 C 60 % 1011,4 hPa 0,0 l/m 2 min 0 min 0,6 UV-I 399 W/m 23,2 km/h (4 Bft)
24.02.2014 13:48 13,8 C 12,2 C 61 % 1011,5 hPa 0,0 l/m 2 min 0 min 0,6 UV-I 415 W/m 25,7 km/h (4 Bft)
24.02.2014 13:50 13,8 C 12,2 C 61 % 1011,5 hPa 0,0 l/m 2 min 0 min 0,6 UV-I 388 W/m 18,0 km/h (3 Bft)
24.02.2014 13:52 13,9 C 12,2 C 62 % 1011,4 hPa 0,0 l/m 2 min 0 min 0,6 UV-I 404 W/m 23,2 km/h (4 Bft)
24.02.2014 13:54 13,9 C 12,2 C 61 % 1011,4 hPa 0,0 l/m 2 min 0 min 0,6 UV-I 422 W/m 28,3 km/h (4 Bft)
24.02.2014 13:56 13,8 C 12,2 C 61 % 1011,4 hPa 0,0 l/m 2 min 0 min 0,6 UV-I 417 W/m 23,2 km/h (4 Bft)
24.02.2014 13:58 13,9 C 12,2 C 62 % 1011,4 hPa 0,0 l/m 2 min 0 min 0,6 UV-I 410 W/m 20,6 km/h (4 Bft)
24.02.2014 14:00 13,9 C 12,2 C 61 % 1011,4 hPa 0,0 l/m 2 min 0 min 0,5 UV-I 381 W/m 15,4 km/h (3 Bft)
24.02.2014 14:02 13,9 C 12,2 C 62 % 1011,4 hPa 0,0 l/m 2 min 0 min 0,5 UV-I 380 W/m 10,3 km/h (2 Bft)
24.02.2014 14:04 13,9 C 12,2 C 61 % 1011,3 hPa 0,0 l/m 2 min 0 min 0,5 UV-I 348 W/m 20,6 km/h (4 Bft)
24.02.2014 14:06 13,8 C 12,2 C 61 % 1011,4 hPa 0,0 l/m 2 min 0 min 0,5 UV-I 367 W/m 23,2 km/h (4 Bft)
24.02.2014 14:08 13,8 C 12,2 C 61 % 1011,3 hPa 0,0 l/m 2 min 0 min 0,5 UV-I 413 W/m 20,6 km/h (4 Bft)
24.02.2014 14:10 13,8 C 12,2 C 61 % 1011,3 hPa 0,0 l/m 2 min 0 min 0,5 UV-I 378 W/m 18,0 km/h (3 Bft)
24.02.2014 14:12 13,9 C 12,2 C 61 % 1011,3 hPa 0,0 l/m 2 min 0 min 0,5 UV-I 392 W/m 7,7 km/h (2 Bft)
24.02.2014 14:14 14,0 C 12,2 C 61 % 1011,3 hPa 0,0 l/m 2 min 0 min 0,5 UV-I 397 W/m 18,0 km/h (3 Bft)
24.02.2014 14:16 14,1 C 12,2 C 61 % 1011,2 hPa 0,0 l/m 2 min 0 min 0,0 UV-I 350 W/m 12,9 km/h (3 Bft)
24.02.2014 14:18 14,1 C 12,2 C 61 % 1011,3 hPa 0,0 l/m 2 min 0 min 0,5 UV-I 383 W/m 18,0 km/h (3 Bft)
24.02.2014 14:20 14,1 C 12,2 C 60 % 1011,2 hPa 0,0 l/m 2 min 0 min 0,0 UV-I 355 W/m 25,7 km/h (4 Bft)
24.02.2014 14:22 14,2 C 12,2 C 60 % 1011,2 hPa 0,0 l/m 2 min 0 min 0,0 UV-I 364 W/m 23,2 km/h (4 Bft)
24.02.2014 14:24 14,2 C 12,2 C 61 % 1011,2 hPa 0,0 l/m 2 min 0 min 0,0 UV-I 396 W/m 15,4 km/h (3 Bft)
24.02.2014 14:26 14,3 C 12,8 C 61 % 1011,2 hPa 0,0 l/m 2 min 0 min 0,0 UV-I 403 W/m 15,4 km/h (3 Bft)
24.02.2014 14:28 14,4 C 12,8 C 59 % 1011,1 hPa 0,0 l/m 2 min 0 min 0,0 UV-I 350 W/m 18,0 km/h (3 Bft)
24.02.2014 14:30 14,3 C 12,8 C 60 % 1011,0 hPa 0,0 l/m 2 min 0 min 0,0 UV-I 378 W/m 20,6 km/h (4 Bft)
24.02.2014 14:32 14,4 C 12,8 C 58 % 1011,0 hPa 0,0 l/m 2 min 0 min 0,0 UV-I 355 W/m 15,4 km/h (3 Bft)
24.02.2014 14:34 14,6 C 12,8 C 58 % 1010,9 hPa 0,0 l/m 2 min 0 min 0,0 UV-I 381 W/m 12,9 km/h (3 Bft)
24.02.2014 14:36 14,7 C 12,8 C 59 % 1010,9 hPa 0,0 l/m 2 min 0 min 0,0 UV-I 362 W/m 28,3 km/h (4 Bft)
24.02.2014 14:38 14,8 C 12,8 C 55 % 1010,9 hPa 0,0 l/m 2 min 0 min 0,0 UV-I 341 W/m 20,6 km/h (4 Bft)
24.02.2014 14:40 14,8 C 12,8 C 55 % 1010,9 hPa 0,0 l/m 2 min 0 min 0,0 UV-I 339 W/m 15,4 km/h (3 Bft)
24.02.2014 14:42 14,8 C 12,8 C 54 % 1011,0 hPa 0,0 l/m 2 min 0 min 0,0 UV-I 334 W/m 20,6 km/h (4 Bft)
24.02.2014 14:44 14,8 C 12,8 C 54 % 1011,0 hPa 0,0 l/m 2 min 0 min 0,0 UV-I 343 W/m 25,7 km/h (4 Bft)
24.02.2014 14:46 14,8 C 12,8 C 55 % 1010,9 hPa 0,0 l/m 2 min 0 min 0,0 UV-I 359 W/m 18,0 km/h (3 Bft)
24.02.2014 14:48 14,8 C 12,8 C 55 % 1011,0 hPa 0,0 l/m 2 min 0 min 0,0 UV-I 373 W/m 18,0 km/h (3 Bft)
24.02.2014 14:50 14,9 C 12,8 C 54 % 1010,9 hPa 0,0 l/m 2 min 0 min 0,0 UV-I 381 W/m 18,0 km/h (3 Bft)
24.02.2014 14:52 15,2 C 12,8 C 55 % 1010,9 hPa 0,0 l/m 2 min 0 min 0,0 UV-I 378 W/m 18,0 km/h (3 Bft)
24.02.2014 14:54 15,2 C 13,3 C 54 % 1010,9 hPa 0,0 l/m 2 min 0 min 0,0 UV-I 376 W/m 10,3 km/h (2 Bft)
24.02.2014 14:56 15,3 C 13,3 C 54 % 1010,9 hPa 0,0 l/m 2 min 0 min 0,0 UV-I 348 W/m 12,9 km/h (3 Bft)
24.02.2014 14:58 15,3 C 13,3 C 54 % 1010,9 hPa 0,0 l/m 2 min 0 min 0,0 UV-I 353 W/m 15,4 km/h (3 Bft)
24.02.2014 15:00 15,3 C 13,3 C 53 % 1010,9 hPa 0,0 l/m 2 min 0 min 0,0 UV-I 327 W/m 18,0 km/h (3 Bft)
24.02.2014 15:02 15,3 C 13,3 C 53 % 1010,9 hPa 0,0 l/m 2 min 0 min 0,0 UV-I 320 W/m 12,9 km/h (3 Bft)
24.02.2014 15:04 15,2 C 12,8 C 52 % 1010,8 hPa 0,0 l/m 2 min 0 min 0,0 UV-I 343 W/m 20,6 km/h (4 Bft)
24.02.2014 15:06 15,1 C 12,8 C 52 % 1010,9 hPa 0,0 l/m 2 min 0 min 0,0 UV-I 318 W/m 10,3 km/h (2 Bft)
24.02.2014 15:08 15,0 C 12,8 C 52 % 1010,8 hPa 0,0 l/m 2 min 0 min 0,0 UV-I 327 W/m 12,9 km/h (3 Bft)
24.02.2014 15:10 14,9 C 12,8 C 52 % 1010,7 hPa 0,0 l/m 2 min 0 min 0,0 UV-I 329 W/m 12,9 km/h (3 Bft)
24.02.2014 15:12 14,9 C 12,8 C 51 % 1010,8 hPa 0,0 l/m 2 min 0 min 0,0 UV-I 330 W/m 15,4 km/h (3 Bft)
24.02.2014 15:14 14,9 C 12,8 C 51 % 1010,8 hPa 0,0 l/m 2 min 0 min 0,0 UV-I 288 W/m 12,9 km/h (3 Bft)
24.02.2014 15:16 14,9 C 12,8 C 52 % 1010,8 hPa 0,0 l/m 2 min 0 min 0,0 UV-I 313 W/m 15,4 km/h (3 Bft)
24.02.2014 15:18 14,9 C 12,8 C 51 % 1010,8 hPa 0,0 l/m 2 min 0 min 0,0 UV-I 302 W/m 20,6 km/h (4 Bft)
24.02.2014 15:20 14,9 C 12,8 C 50 % 1010,7 hPa 0,0 l/m 2 min 0 min 0,0 UV-I 262 W/m 20,6 km/h (4 Bft)
24.02.2014 15:22 14,8 C 12,8 C 51 % 1010,7 hPa 0,0 l/m 2 min 0 min 0,0 UV-I 244 W/m 18,0 km/h (3 Bft)
24.02.2014 15:24 14,7 C 12,8 C 52 % 1010,7 hPa 0,0 l/m 2 min 0 min 0,0 UV-I 262 W/m 23,2 km/h (4 Bft)
24.02.2014 15:26 14,7 C 12,8 C 52 % 1010,7 hPa 0,0 l/m 2 min 0 min 0,0 UV-I 292 W/m 12,9 km/h (3 Bft)
24.02.2014 15:28 14,8 C 12,8 C 53 % 1010,8 hPa 0,0 l/m 2 min 0 min 0,0 UV-I 257 W/m 10,3 km/h (2 Bft)
24.02.2014 15:30 14,8 C 12,8 C 52 % 1010,7 hPa 0,0 l/m 2 min 0 min 0,0 UV-I 258 W/m 15,4 km/h (3 Bft)
24.02.2014 15:32 14,8 C 12,8 C 53 % 1010,7 hPa 0,0 l/m 2 min 0 min 0,0 UV-I 294 W/m 12,9 km/h (3 Bft)
24.02.2014 15:34 14,8 C 12,8 C 53 % 1010,7 hPa 0,0 l/m 2 min 0 min 0,0 UV-I 283 W/m 10,3 km/h (2 Bft)
24.02.2014 15:36 14,9 C 12,8 C 53 % 1010,8 hPa 0,0 l/m 2 min 0 min 0,0 UV-I 271 W/m 10,3 km/h (2 Bft)
24.02.2014 15:38 14,9 C 12,8 C 53 % 1010,7 hPa 0,0 l/m 2 min 0 min 0,0 UV-I 207 W/m 10,3 km/h (2 Bft)
24.02.2014 15:40 14,9 C 12,8 C 53 % 1010,8 hPa 0,0 l/m 2 min 0 min 0,0 UV-I 227 W/m 12,9 km/h (3 Bft)
24.02.2014 15:42 14,9 C 12,8 C 52 % 1010,9 hPa 0,0 l/m 2 min 0 min 0,0 UV-I 237 W/m 10,3 km/h (2 Bft)
24.02.2014 15:44 14,9 C 12,8 C 52 % 1010,8 hPa 0,0 l/m 2 min 0 min 0,0 UV-I 229 W/m 20,6 km/h (4 Bft)
24.02.2014 15:46 14,8 C 12,8 C 51 % 1010,8 hPa 0,0 l/m 2 min 0 min 0,0 UV-I 216 W/m 23,2 km/h (4 Bft)
24.02.2014 15:48 14,7 C 12,8 C 52 % 1010,8 hPa 0,0 l/m 2 min 0 min 0,0 UV-I 218 W/m 25,7 km/h (4 Bft)
24.02.2014 15:50 14,6 C 12,8 C 52 % 1010,7 hPa 0,0 l/m 2 min 0 min 0,0 UV-I 211 W/m 15,4 km/h (3 Bft)
24.02.2014 15:52 14,6 C 12,8 C 52 % 1010,8 hPa 0,0 l/m 2 min 0 min 0,0 UV-I 209 W/m 23,2 km/h (4 Bft)
24.02.2014 15:54 14,6 C 12,8 C 52 % 1010,8 hPa 0,0 l/m 2 min 0 min 0,0 UV-I 220 W/m 15,4 km/h (3 Bft)
24.02.2014 15:56 14,6 C 12,8 C 52 % 1010,8 hPa 0,0 l/m 2 min 0 min 0,0 UV-I 209 W/m 18,0 km/h (3 Bft)
24.02.2014 15:58 14,5 C 12,2 C 53 % 1010,8 hPa 0,0 l/m 2 min 0 min 0,0 UV-I 216 W/m 12,9 km/h (3 Bft)
24.02.2014 16:00 14,5 C 12,2 C 53 % 1010,8 hPa 0,0 l/m 2 min 0 min 0,0 UV-I 202 W/m 7,7 km/h (2 Bft)
24.02.2014 16:02 14,4 C 12,2 C 53 % 1010,9 hPa 0,0 l/m 2 min 0 min 0,0 UV-I 202 W/m 20,6 km/h (4 Bft)
24.02.2014 16:04 14,4 C 12,2 C 54 % 1010,8 hPa 0,0 l/m 2 min 0 min 0,0 UV-I 190 W/m 20,6 km/h (4 Bft)
24.02.2014 16:06 14,4 C 12,2 C 52 % 1010,9 hPa 0,0 l/m 2 min 0 min 0,0 UV-I 195 W/m 20,6 km/h (4 Bft)
24.02.2014 16:08 14,3 C 12,2 C 53 % 1010,9 hPa 0,0 l/m 2 min 0 min 0,0 UV-I 214 W/m 12,9 km/h (3 Bft)
24.02.2014 16:10 14,4 C 12,2 C 53 % 1010,9 hPa 0,0 l/m 2 min 0 min 0,0 UV-I 206 W/m 10,3 km/h (2 Bft)
24.02.2014 16:12 14,4 C 12,2 C 53 % 1010,9 hPa 0,0 l/m 2 min 0 min 0,0 UV-I 202 W/m 5,1 km/h (1 Bft)
24.02.2014 16:14 14,4 C 12,2 C 53 % 1010,9 hPa 0,0 l/m 2 min 0 min 0,0 UV-I 207 W/m 18,0 km/h (3 Bft)
24.02.2014 16:16 14,4 C 12,2 C 55 % 1010,9 hPa 0,0 l/m 2 min 0 min 0,0 UV-I 192 W/m 0,0 km/h (0 Bft)
24.02.2014 16:18 14,4 C 12,2 C 54 % 1010,9 hPa 0,0 l/m 2 min 0 min 0,0 UV-I 174 W/m 18,0 km/h (3 Bft)
24.02.2014 16:20 14,4 C 12,2 C 54 % 1010,9 hPa 0,0 l/m 2 min 0 min 0,0 UV-I 171 W/m 12,9 km/h (3 Bft)
24.02.2014 16:22 14,3 C 12,2 C 53 % 1010,9 hPa 0,0 l/m 2 min 0 min 0,0 UV-I 188 W/m 12,9 km/h (3 Bft)
24.02.2014 16:24 14,3 C 12,2 C 53 % 1010,9 hPa 0,0 l/m 2 min 0 min 0,0 UV-I 163 W/m 12,9 km/h (3 Bft)
24.02.2014 16:26 14,3 C 12,2 C 54 % 1010,9 hPa 0,0 l/m 2 min 0 min 0,0 UV-I 163 W/m 12,9 km/h (3 Bft)
24.02.2014 16:28 14,3 C 12,2 C 53 % 1010,9 hPa 0,0 l/m 2 min 0 min 0,0 UV-I 160 W/m 7,7 km/h (2 Bft)
24.02.2014 16:30 14,2 C 12,2 C 54 % 1010,9 hPa 0,0 l/m 2 min 0 min 0,0 UV-I 158 W/m 12,9 km/h (3 Bft)
24.02.2014 16:32 14,2 C 12,2 C 54 % 1010,9 hPa 0,0 l/m 2 min 0 min 0,0 UV-I 155 W/m 10,3 km/h (2 Bft)
24.02.2014 16:34 14,2 C 12,2 C 54 % 1010,9 hPa 0,0 l/m 2 min 0 min 0,0 UV-I 148 W/m 10,3 km/h (2 Bft)
24.02.2014 16:36 14,1 C 12,2 C 54 % 1010,9 hPa 0,0 l/m 2 min 0 min 0,0 UV-I 151 W/m 10,3 km/h (2 Bft)
24.02.2014 16:38 14,1 C 11,7 C 55 % 1010,9 hPa 0,0 l/m 2 min 0 min 0,0 UV-I 153 W/m 0,0 km/h (0 Bft)
24.02.2014 16:40 14,1 C 11,7 C 55 % 1010,8 hPa 0,0 l/m 2 min 0 min 0,0 UV-I 142 W/m 2,6 km/h (1 Bft)
24.02.2014 16:42 14,1 C 11,7 C 55 % 1010,9 hPa 0,0 l/m 2 min 0 min 0,0 UV-I 123 W/m 12,9 km/h (3 Bft)
24.02.2014 16:44 14,0 C 11,7 C 55 % 1010,9 hPa 0,0 l/m 0 min 0 min 0,0 UV-I 97 W/m 10,3 km/h (2 Bft)
24.02.2014 16:46 13,9 C 11,7 C 55 % 1011,0 hPa 0,0 l/m 0 min 0 min 0,0 UV-I 88 W/m 7,7 km/h (2 Bft)
24.02.2014 16:48 13,9 C 11,7 C 55 % 1011,0 hPa 0,0 l/m 0 min 0 min 0,0 UV-I 84 W/m 10,3 km/h (2 Bft)
24.02.2014 16:50 13,8 C 11,7 C 56 % 1011,0 hPa 0,0 l/m 0 min 0 min 0,0 UV-I 81 W/m 2,6 km/h (1 Bft)
24.02.2014 16:52 13,8 C 11,7 C 55 % 1011,0 hPa 0,0 l/m 0 min 0 min 0,0 UV-I 77 W/m 10,3 km/h (2 Bft)
24.02.2014 16:54 13,8 C 11,7 C 56 % 1011,1 hPa 0,0 l/m 0 min 0 min 0,0 UV-I 74 W/m 0,0 km/h (0 Bft)
24.02.2014 16:56 13,8 C 11,1 C 56 % 1011,0 hPa 0,0 l/m 0 min 0 min 0,0 UV-I 74 W/m 7,7 km/h (2 Bft)
24.02.2014 16:58 13,7 C 11,1 C 57 % 1011,0 hPa 0,0 l/m 0 min 0 min 0,0 UV-I 72 W/m 0,0 km/h (0 Bft)
24.02.2014 17:00 13,6 C 11,1 C 57 % 1011,1 hPa 0,0 l/m 0 min 0 min 0,0 UV-I 67 W/m 5,1 km/h (1 Bft)
24.02.2014 17:02 13,6 C 11,1 C 56 % 1011,2 hPa 0,0 l/m 0 min 0 min 0,0 UV-I 63 W/m 12,9 km/h (3 Bft)
24.02.2014 17:04 13,6 C 11,1 C 56 % 1011,2 hPa 0,0 l/m 0 min 0 min 0,0 UV-I 60 W/m 7,7 km/h (2 Bft)
24.02.2014 17:06 13,5 C 11,1 C 57 % 1011,1 hPa 0,0 l/m 0 min 0 min 0,0 UV-I 56 W/m 0,0 km/h (0 Bft)
24.02.2014 17:08 13,4 C 10,6 C 57 % 1011,1 hPa 0,0 l/m 0 min 0 min 0,0 UV-I 54 W/m 0,0 km/h (0 Bft)
24.02.2014 17:10 13,4 C 10,6 C 57 % 1011,1 hPa 0,0 l/m 0 min 0 min 0,0 UV-I 49 W/m 10,3 km/h (2 Bft)
24.02.2014 17:12 13,4 C 10,6 C 57 % 1011,1 hPa 0,0 l/m 0 min 0 min 0,0 UV-I 47 W/m 5,1 km/h (1 Bft)
24.02.2014 17:14 13,4 C 10,6 C 58 % 1011,1 hPa 0,0 l/m 0 min 0 min 0,0 UV-I 46 W/m 5,1 km/h (1 Bft)
24.02.2014 17:16 13,3 C 10,6 C 58 % 1011,1 hPa 0,0 l/m 0 min 0 min 0,0 UV-I 44 W/m 10,3 km/h (2 Bft)
24.02.2014 17:18 13,3 C 10,6 C 58 % 1011,2 hPa 0,0 l/m 0 min 0 min 0,0 UV-I 42 W/m 7,7 km/h (2 Bft)
24.02.2014 17:20 13,3 C 10,6 C 58 % 1011,2 hPa 0,0 l/m 0 min 0 min 0,0 UV-I 40 W/m 7,7 km/h (2 Bft)
24.02.2014 17:22 13,2 C 10,6 C 58 % 1011,2 hPa 0,0 l/m 0 min 0 min 0,0 UV-I 37 W/m 0,0 km/h (0 Bft)
24.02.2014 17:24 13,1 C 10,0 C 59 % 1011,2 hPa 0,0 l/m 0 min 0 min 0,0 UV-I 35 W/m 0,0 km/h (0 Bft)
24.02.2014 17:26 13,1 C 10,0 C 59 % 1011,2 hPa 0,0 l/m 0 min 0 min 0,0 UV-I 33 W/m 12,9 km/h (3 Bft)
24.02.2014 17:28 13,0 C 10,0 C 59 % 1011,2 hPa 0,0 l/m 0 min 0 min 0,0 UV-I 32 W/m 15,4 km/h (3 Bft)
24.02.2014 17:30 12,9 C 10,0 C 59 % 1011,2 hPa 0,0 l/m 0 min 0 min 0,0 UV-I 30 W/m 12,9 km/h (3 Bft)
24.02.2014 17:32 12,8 C 10,0 C 60 % 1011,2 hPa 0,0 l/m 0 min 0 min 0,0 UV-I 28 W/m 10,3 km/h (2 Bft)
24.02.2014 17:34 12,8 C 10,0 C 60 % 1011,2 hPa 0,0 l/m 0 min 0 min 0,0 UV-I 26 W/m 5,1 km/h (1 Bft)
24.02.2014 17:36 12,7 C 10,0 C 60 % 1011,2 hPa 0,0 l/m 0 min 0 min 0,0 UV-I 25 W/m 0,0 km/h (0 Bft)
24.02.2014 17:38 12,7 C 9,4 C 60 % 1011,2 hPa 0,0 l/m 0 min 0 min 0,0 UV-I 23 W/m 7,7 km/h (2 Bft)
24.02.2014 17:40 12,6 C 9,4 C 60 % 1011,2 hPa 0,0 l/m 0 min 0 min 0,0 UV-I 21 W/m 5,1 km/h (1 Bft)
24.02.2014 17:42 12,6 C 9,4 C 60 % 1011,3 hPa 0,0 l/m 0 min 0 min 0,0 UV-I 19 W/m 0,0 km/h (0 Bft)
24.02.2014 17:44 12,5 C 9,4 C 61 % 1011,2 hPa 0,0 l/m 0 min 0 min 0,0 UV-I 18 W/m 0,0 km/h (0 Bft)
24.02.2014 17:46 12,4 C 8,9 C 61 % 1011,3 hPa 0,0 l/m 0 min 0 min 0,0 UV-I 16 W/m 2,6 km/h (1 Bft)
24.02.2014 17:48 12,3 C 8,9 C 61 % 1011,2 hPa 0,0 l/m 0 min 0 min 0,0 UV-I 14 W/m 12,9 km/h (3 Bft)
24.02.2014 17:50 12,3 C 8,9 C 61 % 1011,1 hPa 0,0 l/m 0 min 0 min 0,0 UV-I 14 W/m 2,6 km/h (1 Bft)
24.02.2014 17:52 12,2 C 8,9 C 61 % 1011,1 hPa 0,0 l/m 0 min 0 min 0,0 UV-I 12 W/m 0,0 km/h (0 Bft)
24.02.2014 17:54 12,2 C 8,9 C 62 % 1011,2 hPa 0,0 l/m 0 min 0 min 0,0 UV-I 11 W/m 0,0 km/h (0 Bft)
24.02.2014 17:56 12,1 C 8,9 C 62 % 1011,2 hPa 0,0 l/m 0 min 0 min 0,0 UV-I 9 W/m 2,6 km/h (1 Bft)
24.02.2014 17:58 12,0 C 8,9 C 62 % 1011,2 hPa 0,0 l/m 0 min 0 min 0,0 UV-I 7 W/m 0,0 km/h (0 Bft)
24.02.2014 18:00 11,9 C 8,9 C 62 % 1011,2 hPa 0,0 l/m 0 min 0 min 0,0 UV-I 7 W/m 2,6 km/h (1 Bft)
24.02.2014 18:02 11,9 C 8,9 C 62 % 1011,2 hPa 0,0 l/m 0 min 0 min 0,0 UV-I 7 W/m 7,7 km/h (2 Bft)
24.02.2014 18:04 11,8 C 8,9 C 63 % 1011,3 hPa 0,0 l/m 0 min 0 min 0,0 UV-I 5 W/m 2,6 km/h (1 Bft)
24.02.2014 18:06 11,7 C 8,3 C 63 % 1011,2 hPa 0,0 l/m 0 min 0 min 0,0 UV-I 5 W/m 12,9 km/h (3 Bft)
24.02.2014 18:08 11,7 C 8,3 C 63 % 1011,3 hPa 0,0 l/m 0 min 0 min 0,0 UV-I 0 W/m 10,3 km/h (2 Bft)
24.02.2014 18:10 11,6 C 8,3 C 64 % 1011,3 hPa 0,0 l/m 0 min 0 min 0,0 UV-I 0 W/m 2,6 km/h (1 Bft)
24.02.2014 18:12 11,6 C 8,3 C 64 % 1011,4 hPa 0,0 l/m 0 min 0 min 0,0 UV-I 0 W/m 0,0 km/h (0 Bft)
24.02.2014 18:14 11,4 C 7,8 C 64 % 1011,4 hPa 0,0 l/m 0 min 0 min 0,0 UV-I 0 W/m 0,0 km/h (0 Bft)
24.02.2014 18:16 11,4 C 7,8 C 65 % 1011,4 hPa 0,0 l/m 0 min 0 min 0,0 UV-I 0 W/m 0,0 km/h (0 Bft)
24.02.2014 18:18 11,3 C 7,8 C 65 % 1011,4 hPa 0,0 l/m 0 min 0 min 0,0 UV-I 0 W/m 5,1 km/h (1 Bft)
24.02.2014 18:20 11,2 C 7,8 C 65 % 1011,4 hPa 0,0 l/m 0 min 0 min 0,0 UV-I 0 W/m 0,0 km/h (0 Bft)
24.02.2014 18:22 11,1 C 7,8 C 66 % 1011,4 hPa 0,0 l/m 0 min 0 min 0,0 UV-I 0 W/m 2,6 km/h (1 Bft)
24.02.2014 18:24 11,0 C 7,2 C 66 % 1011,4 hPa 0,0 l/m 0 min 0 min 0,0 UV-I 0 W/m 2,6 km/h (1 Bft)
24.02.2014 18:26 10,9 C 7,8 C 66 % 1011,4 hPa 0,0 l/m 0 min 0 min 0,0 UV-I 0 W/m 7,7 km/h (2 Bft)
24.02.2014 18:28 10,9 C 7,8 C 66 % 1011,4 hPa 0,0 l/m 0 min 0 min 0,0 UV-I 0 W/m 0,0 km/h (0 Bft)
24.02.2014 18:30 10,9 C 7,2 C 67 % 1011,4 hPa 0,0 l/m 0 min 0 min 0,0 UV-I 0 W/m 2,6 km/h (1 Bft)
24.02.2014 18:32 10,8 C 7,2 C 67 % 1011,4 hPa 0,0 l/m 0 min 0 min 0,0 UV-I 0 W/m 0,0 km/h (0 Bft)
24.02.2014 18:34 10,7 C 7,2 C 67 % 1011,4 hPa 0,0 l/m 0 min 0 min 0,0 UV-I 0 W/m 2,6 km/h (1 Bft)
24.02.2014 18:36 10,6 C 7,2 C 68 % 1011,3 hPa 0,0 l/m 0 min 0 min 0,0 UV-I 0 W/m 0,0 km/h (0 Bft)
24.02.2014 18:38 10,6 C 7,2 C 68 % 1011,4 hPa 0,0 l/m 0 min 0 min 0,0 UV-I 0 W/m 2,6 km/h (1 Bft)
24.02.2014 18:40 10,5 C 7,2 C 68 % 1011,4 hPa 0,0 l/m 0 min 0 min 0,0 UV-I 0 W/m 10,3 km/h (2 Bft)
24.02.2014 18:42 10,5 C 7,2 C 68 % 1011,4 hPa 0,0 l/m 0 min 0 min 0,0 UV-I 0 W/m 10,3 km/h (2 Bft)
24.02.2014 18:44 10,5 C 7,2 C 68 % 1011,4 hPa 0,0 l/m 0 min 0 min 0,0 UV-I 0 W/m 15,4 km/h (3 Bft)
24.02.2014 18:46 10,5 C 7,2 C 68 % 1011,5 hPa 0,0 l/m 0 min 0 min 0,0 UV-I 0 W/m 10,3 km/h (2 Bft)
24.02.2014 18:48 10,5 C 7,2 C 68 % 1011,5 hPa 0,0 l/m 0 min 0 min 0,0 UV-I 0 W/m 5,1 km/h (1 Bft)
24.02.2014 18:50 10,5 C 7,2 C 68 % 1011,5 hPa 0,0 l/m 0 min 0 min 0,0 UV-I 0 W/m 10,3 km/h (2 Bft)
24.02.2014 18:52 10,4 C 7,2 C 68 % 1011,6 hPa 0,0 l/m 0 min 0 min 0,0 UV-I 0 W/m 7,7 km/h (2 Bft)
24.02.2014 18:54 10,4 C 7,2 C 68 % 1011,5 hPa 0,0 l/m 0 min 0 min 0,0 UV-I 0 W/m 10,3 km/h (2 Bft)
24.02.2014 18:56 10,3 C 7,2 C 69 % 1011,6 hPa 0,0 l/m 0 min 0 min 0,0 UV-I 0 W/m 5,1 km/h (1 Bft)
24.02.2014 18:58 10,3 C 7,2 C 69 % 1011,6 hPa 0,0 l/m 0 min 0 min 0,0 UV-I 0 W/m 0,0 km/h (0 Bft)
24.02.2014 19:00 10,3 C 7,2 C 69 % 1011,6 hPa 0,0 l/m 0 min 0 min 0,0 UV-I 0 W/m 10,3 km/h (2 Bft)
24.02.2014 19:02 10,2 C 7,2 C 69 % 1011,6 hPa 0,0 l/m 0 min 0 min 0,0 UV-I 0 W/m 7,7 km/h (2 Bft)
24.02.2014 19:04 10,2 C 7,2 C 69 % 1011,6 hPa 0,0 l/m 0 min 0 min 0,0 UV-I 0 W/m 2,6 km/h (1 Bft)
24.02.2014 19:06 10,2 C 7,2 C 70 % 1011,7 hPa 0,0 l/m 0 min 0 min 0,0 UV-I 0 W/m 5,1 km/h (1 Bft)
24.02.2014 19:08 10,2 C 7,2 C 70 % 1011,6 hPa 0,0 l/m 0 min 0 min 0,0 UV-I 0 W/m 15,4 km/h (3 Bft)
24.02.2014 19:10 10,1 C 7,2 C 70 % 1011,6 hPa 0,0 l/m 0 min 0 min 0,0 UV-I 0 W/m 5,1 km/h (1 Bft)
24.02.2014 19:12 10,1 C 7,2 C 70 % 1011,6 hPa 0,0 l/m 0 min 0 min 0,0 UV-I 0 W/m 7,7 km/h (2 Bft)
24.02.2014 19:14 10,1 C 7,2 C 70 % 1011,6 hPa 0,0 l/m 0 min 0 min 0,0 UV-I 0 W/m 10,3 km/h (2 Bft)
24.02.2014 19:16 10,0 C 7,2 C 70 % 1011,6 hPa 0,0 l/m 0 min 0 min 0,0 UV-I 0 W/m 12,9 km/h (3 Bft)
24.02.2014 19:18 9,9 C 7,2 C 71 % 1011,6 hPa 0,0 l/m 0 min 0 min 0,0 UV-I 0 W/m 7,7 km/h (2 Bft)
24.02.2014 19:20 9,9 C 7,2 C 71 % 1011,6 hPa 0,0 l/m 0 min 0 min 0,0 UV-I 0 W/m 10,3 km/h (2 Bft)
24.02.2014 19:22 9,9 C 7,2 C 71 % 1011,6 hPa 0,0 l/m 0 min 0 min 0,0 UV-I 0 W/m 10,3 km/h (2 Bft)
24.02.2014 19:24 9,9 C 7,2 C 71 % 1011,6 hPa 0,0 l/m 0 min 0 min 0,0 UV-I 0 W/m 5,1 km/h (1 Bft)
24.02.2014 19:26 9,9 C 7,2 C 71 % 1011,6 hPa 0,0 l/m 0 min 0 min 0,0 UV-I 0 W/m 15,4 km/h (3 Bft)
24.02.2014 19:28 9,9 C 7,2 C 71 % 1011,7 hPa 0,0 l/m 0 min 0 min 0,0 UV-I 0 W/m 7,7 km/h (2 Bft)
24.02.2014 19:30 9,9 C 7,2 C 71 % 1011,6 hPa 0,0 l/m 0 min 0 min 0,0 UV-I 0 W/m 10,3 km/h (2 Bft)
24.02.2014 19:32 9,9 C 7,2 C 71 % 1011,6 hPa 0,0 l/m 0 min 0 min 0,0 UV-I 0 W/m 12,9 km/h (3 Bft)
24.02.2014 19:34 9,8 C 7,2 C 71 % 1011,7 hPa 0,0 l/m 0 min 0 min 0,0 UV-I 0 W/m 12,9 km/h (3 Bft)
24.02.2014 19:36 9,8 C 7,2 C 71 % 1011,7 hPa 0,0 l/m 0 min 0 min 0,0 UV-I 0 W/m 7,7 km/h (2 Bft)
24.02.2014 19:38 9,8 C 7,2 C 71 % 1011,6 hPa 0,0 l/m 0 min 0 min 0,0 UV-I 0 W/m 18,0 km/h (3 Bft)
24.02.2014 19:40 9,8 C 7,2 C 72 % 1011,7 hPa 0,0 l/m 0 min 0 min 0,0 UV-I 0 W/m 12,9 km/h (3 Bft)
24.02.2014 19:42 9,8 C 7,2 C 72 % 1011,6 hPa 0,0 l/m 0 min 0 min 0,0 UV-I 0 W/m 12,9 km/h (3 Bft)
24.02.2014 19:44 9,7 C 7,2 C 72 % 1011,7 hPa 0,0 l/m 0 min 0 min 0,0 UV-I 0 W/m 7,7 km/h (2 Bft)
24.02.2014 19:46 9,7 C 7,2 C 72 % 1011,6 hPa 0,0 l/m 0 min 0 min 0,0 UV-I 0 W/m 12,9 km/h (3 Bft)
24.02.2014 19:48 9,7 C 7,2 C 72 % 1011,6 hPa 0,0 l/m 0 min 0 min 0,0 UV-I 0 W/m 18,0 km/h (3 Bft)
24.02.2014 19:50 9,7 C 7,2 C 72 % 1011,7 hPa 0,0 l/m 0 min 0 min 0,0 UV-I 0 W/m 15,4 km/h (3 Bft)
24.02.2014 19:52 9,7 C 7,2 C 72 % 1011,7 hPa 0,0 l/m 0 min 0 min 0,0 UV-I 0 W/m 20,6 km/h (4 Bft)
24.02.2014 19:54 9,8 C 7,8 C 72 % 1011,7 hPa 0,0 l/m 0 min 0 min 0,0 UV-I 0 W/m 10,3 km/h (2 Bft)
24.02.2014 19:56 9,8 C 7,8 C 72 % 1011,7 hPa 0,0 l/m 0 min 0 min 0,0 UV-I 0 W/m 12,9 km/h (3 Bft)
24.02.2014 19:58 9,8 C 7,8 C 72 % 1011,6 hPa 0,0 l/m 0 min 0 min 0,0 UV-I 0 W/m 15,4 km/h (3 Bft)
24.02.2014 20:00 9,8 C 7,2 C 72 % 1011,6 hPa 0,0 l/m 0 min 0 min 0,0 UV-I 0 W/m 15,4 km/h (3 Bft)
24.02.2014 20:02 9,8 C 7,2 C 72 % 1011,6 hPa 0,0 l/m 0 min 0 min 0,0 UV-I 0 W/m 15,4 km/h (3 Bft)
24.02.2014 20:04 9,8 C 7,2 C 72 % 1011,5 hPa 0,0 l/m 0 min 0 min 0,0 UV-I 0 W/m 15,4 km/h (3 Bft)
24.02.2014 20:06 9,8 C 7,2 C 72 % 1011,6 hPa 0,0 l/m 0 min 0 min 0,0 UV-I 0 W/m 15,4 km/h (3 Bft)
24.02.2014 20:08 9,7 C 7,2 C 72 % 1011,5 hPa 0,0 l/m 0 min 0 min 0,0 UV-I 0 W/m 15,4 km/h (3 Bft)
24.02.2014 20:10 9,7 C 7,2 C 72 % 1011,6 hPa 0,0 l/m 0 min 0 min 0,0 UV-I 0 W/m 20,6 km/h (4 Bft)
24.02.2014 20:12 9,7 C 7,2 C 72 % 1011,6 hPa 0,0 l/m 0 min 0 min 0,0 UV-I 0 W/m 18,0 km/h (3 Bft)
24.02.2014 20:14 9,7 C 7,2 C 72 % 1011,6 hPa 0,0 l/m 0 min 0 min 0,0 UV-I 0 W/m 10,3 km/h (2 Bft)
24.02.2014 20:16 9,6 C 7,2 C 72 % 1011,6 hPa 0,0 l/m 0 min 0 min 0,0 UV-I 0 W/m 10,3 km/h (2 Bft)
24.02.2014 20:18 9,6 C 7,2 C 72 % 1011,6 hPa 0,0 l/m 0 min 0 min 0,0 UV-I 0 W/m 2,6 km/h (1 Bft)
24.02.2014 20:20 9,6 C 7,2 C 72 % 1011,6 hPa 0,0 l/m 0 min 0 min 0,0 UV-I 0 W/m 18,0 km/h (3 Bft)
24.02.2014 20:22 9,6 C 7,2 C 72 % 1011,6 hPa 0,0 l/m 0 min 0 min 0,0 UV-I 0 W/m 10,3 km/h (2 Bft)
24.02.2014 20:24 9,7 C 7,2 C 72 % 1011,5 hPa 0,0 l/m 0 min 0 min 0,0 UV-I 0 W/m 15,4 km/h (3 Bft)
24.02.2014 20:26 9,7 C 7,2 C 72 % 1011,6 hPa 0,0 l/m 0 min 0 min 0,0 UV-I 0 W/m 10,3 km/h (2 Bft)
24.02.2014 20:28 9,7 C 7,2 C 72 % 1011,6 hPa 0,0 l/m 0 min 0 min 0,0 UV-I 0 W/m 12,9 km/h (3 Bft)
24.02.2014 20:30 9,7 C 7,2 C 72 % 1011,6 hPa 0,0 l/m 0 min 0 min 0,0 UV-I 0 W/m 10,3 km/h (2 Bft)
24.02.2014 20:32 9,7 C 7,2 C 72 % 1011,6 hPa 0,0 l/m 0 min 0 min 0,0 UV-I 0 W/m 12,9 km/h (3 Bft)
24.02.2014 20:34 9,7 C 7,2 C 72 % 1011,6 hPa 0,0 l/m 0 min 0 min 0,0 UV-I 0 W/m 12,9 km/h (3 Bft)
24.02.2014 20:36 9,7 C 7,2 C 72 % 1011,6 hPa 0,0 l/m 0 min 0 min 0,0 UV-I 0 W/m 12,9 km/h (3 Bft)
24.02.2014 20:38 9,6 C 7,2 C 72 % 1011,6 hPa 0,0 l/m 0 min 0 min 0,0 UV-I 0 W/m 12,9 km/h (3 Bft)
24.02.2014 20:40 9,7 C 7,2 C 72 % 1011,6 hPa 0,0 l/m 0 min 0 min 0,0 UV-I 0 W/m 7,7 km/h (2 Bft)
24.02.2014 20:42 9,6 C 7,2 C 72 % 1011,6 hPa 0,0 l/m 0 min 0 min 0,0 UV-I 0 W/m 10,3 km/h (2 Bft)
24.02.2014 20:44 9,6 C 7,2 C 72 % 1011,6 hPa 0,0 l/m 0 min 0 min 0,0 UV-I 0 W/m 18,0 km/h (3 Bft)
24.02.2014 20:46 9,6 C 7,2 C 72 % 1011,6 hPa 0,0 l/m 0 min 0 min 0,0 UV-I 0 W/m 7,7 km/h (2 Bft)
24.02.2014 20:48 9,6 C 7,2 C 72 % 1011,6 hPa 0,0 l/m 0 min 0 min 0,0 UV-I 0 W/m 15,4 km/h (3 Bft)
24.02.2014 20:50 9,5 C 7,2 C 72 % 1011,7 hPa 0,0 l/m 0 min 0 min 0,0 UV-I 0 W/m 15,4 km/h (3 Bft)
24.02.2014 20:52 9,6 C 7,2 C 72 % 1011,7 hPa 0,0 l/m 0 min 0 min 0,0 UV-I 0 W/m 12,9 km/h (3 Bft)
24.02.2014 20:54 9,5 C 7,2 C 72 % 1011,7 hPa 0,0 l/m 0 min 0 min 0,0 UV-I 0 W/m 5,1 km/h (1 Bft)
24.02.2014 20:56 9,5 C 7,2 C 72 % 1011,6 hPa 0,0 l/m 0 min 0 min 0,0 UV-I 0 W/m 7,7 km/h (2 Bft)
24.02.2014 20:58 9,4 C 7,2 C 73 % 1011,7 hPa 0,0 l/m 0 min 0 min 0,0 UV-I 0 W/m 10,3 km/h (2 Bft)
24.02.2014 21:00 9,4 C 7,2 C 73 % 1011,6 hPa 0,0 l/m 0 min 0 min 0,0 UV-I 0 W/m 10,3 km/h (2 Bft)
24.02.2014 21:02 9,3 C 6,7 C 73 % 1011,6 hPa 0,0 l/m 0 min 0 min 0,0 UV-I 0 W/m 2,6 km/h (1 Bft)
24.02.2014 21:04 9,3 C 6,7 C 73 % 1011,6 hPa 0,0 l/m 0 min 0 min 0,0 UV-I 0 W/m 7,7 km/h (2 Bft)
24.02.2014 21:06 9,2 C 6,7 C 73 % 1011,7 hPa 0,0 l/m 0 min 0 min 0,0 UV-I 0 W/m 5,1 km/h (1 Bft)
24.02.2014 21:08 9,1 C 6,7 C 73 % 1011,7 hPa 0,0 l/m 0 min 0 min 0,0 UV-I 0 W/m 5,1 km/h (1 Bft)
24.02.2014 21:10 9,0 C 6,7 C 74 % 1011,7 hPa 0,0 l/m 0 min 0 min 0,0 UV-I 0 W/m 2,6 km/h (1 Bft)
24.02.2014 21:12 8,9 C 6,1 C 74 % 1011,7 hPa 0,0 l/m 0 min 0 min 0,0 UV-I 0 W/m 0,0 km/h (0 Bft)
24.02.2014 21:14 8,8 C 6,1 C 74 % 1011,7 hPa 0,0 l/m 0 min 0 min 0,0 UV-I 0 W/m 0,0 km/h (0 Bft)
24.02.2014 21:16 8,8 C 6,1 C 75 % 1011,7 hPa 0,0 l/m 0 min 0 min 0,0 UV-I 0 W/m 0,0 km/h (0 Bft)
24.02.2014 21:18 8,7 C 6,1 C 75 % 1011,7 hPa 0,0 l/m 0 min 0 min 0,0 UV-I 0 W/m 0,0 km/h (0 Bft)
24.02.2014 21:20 8,7 C 6,1 C 75 % 1011,7 hPa 0,0 l/m 0 min 0 min 0,0 UV-I 0 W/m 0,0 km/h (0 Bft)
24.02.2014 21:22 8,7 C 6,1 C 75 % 1011,8 hPa 0,0 l/m 0 min 0 min 0,0 UV-I 0 W/m 2,6 km/h (1 Bft)
24.02.2014 21:24 8,6 C 6,1 C 75 % 1011,7 hPa 0,0 l/m 0 min 0 min 0,0 UV-I 0 W/m 0,0 km/h (0 Bft)
24.02.2014 21:26 8,6 C 6,1 C 75 % 1011,8 hPa 0,0 l/m 0 min 0 min 0,0 UV-I 0 W/m 0,0 km/h (0 Bft)
24.02.2014 21:28 8,5 C 5,6 C 76 % 1011,7 hPa 0,0 l/m 0 min 0 min 0,0 UV-I 0 W/m 2,6 km/h (1 Bft)
24.02.2014 21:30 8,4 C 5,6 C 76 % 1011,8 hPa 0,0 l/m 0 min 0 min 0,0 UV-I 0 W/m 7,7 km/h (2 Bft)
24.02.2014 21:32 8,4 C 5,6 C 76 % 1011,8 hPa 0,0 l/m 0 min 0 min 0,0 UV-I 0 W/m 2,6 km/h (1 Bft)
24.02.2014 21:34 8,4 C 5,6 C 76 % 1011,8 hPa 0,0 l/m 0 min 0 min 0,0 UV-I 0 W/m 7,7 km/h (2 Bft)
24.02.2014 21:36 8,4 C 5,6 C 76 % 1011,8 hPa 0,0 l/m 0 min 0 min 0,0 UV-I 0 W/m 2,6 km/h (1 Bft)
24.02.2014 21:38 8,3 C 5,6 C 76 % 1011,8 hPa 0,0 l/m 0 min 0 min 0,0 UV-I 0 W/m 5,1 km/h (1 Bft)
24.02.2014 21:40 8,3 C 5,6 C 77 % 1011,8 hPa 0,0 l/m 0 min 0 min 0,0 UV-I 0 W/m 5,1 km/h (1 Bft)
24.02.2014 21:42 8,3 C 5,6 C 77 % 1011,7 hPa 0,0 l/m 0 min 0 min 0,0 UV-I 0 W/m 0,0 km/h (0 Bft)
24.02.2014 21:44 8,3 C 5,6 C 77 % 1011,8 hPa 0,0 l/m 0 min 0 min 0,0 UV-I 0 W/m 5,1 km/h (1 Bft)
24.02.2014 21:46 8,3 C 5,6 C 77 % 1011,8 hPa 0,0 l/m 0 min 0 min 0,0 UV-I 0 W/m 5,1 km/h (1 Bft)
24.02.2014 21:48 8,3 C 5,6 C 77 % 1011,8 hPa 0,0 l/m 0 min 0 min 0,0 UV-I 0 W/m 5,1 km/h (1 Bft)
24.02.2014 21:50 8,2 C 5,6 C 77 % 1011,8 hPa 0,0 l/m 0 min 0 min 0,0 UV-I 0 W/m 7,7 km/h (2 Bft)
24.02.2014 21:52 8,2 C 5,6 C 76 % 1011,8 hPa 0,0 l/m 0 min 0 min 0,0 UV-I 0 W/m 0,0 km/h (0 Bft)
24.02.2014 21:54 8,2 C 5,6 C 76 % 1011,7 hPa 0,0 l/m 0 min 0 min 0,0 UV-I 0 W/m 0,0 km/h (0 Bft)
24.02.2014 21:56 8,2 C 5,6 C 76 % 1011,7 hPa 0,0 l/m 0 min 0 min 0,0 UV-I 0 W/m 5,1 km/h (1 Bft)
24.02.2014 21:58 8,2 C 5,6 C 76 % 1011,8 hPa 0,0 l/m 0 min 0 min 0,0 UV-I 0 W/m 10,3 km/h (2 Bft)
24.02.2014 22:00 8,2 C 5,6 C 76 % 1011,7 hPa 0,0 l/m 0 min 0 min 0,0 UV-I 0 W/m 5,1 km/h (1 Bft)
24.02.2014 22:02 8,1 C 5,6 C 77 % 1011,7 hPa 0,0 l/m 0 min 0 min 0,0 UV-I 0 W/m 10,3 km/h (2 Bft)
24.02.2014 22:04 8,1 C 5,6 C 77 % 1011,6 hPa 0,0 l/m 0 min 0 min 0,0 UV-I 0 W/m 10,3 km/h (2 Bft)
24.02.2014 22:06 8,1 C 5,6 C 77 % 1011,6 hPa 0,0 l/m 0 min 0 min 0,0 UV-I 0 W/m 7,7 km/h (2 Bft)
24.02.2014 22:08 8,1 C 5,6 C 77 % 1011,7 hPa 0,0 l/m 0 min 0 min 0,0 UV-I 0 W/m 7,7 km/h (2 Bft)
24.02.2014 22:10 8,0 C 5,6 C 77 % 1011,7 hPa 0,0 l/m 0 min 0 min 0,0 UV-I 0 W/m 5,1 km/h (1 Bft)
24.02.2014 22:12 8,0 C 5,6 C 77 % 1011,7 hPa 0,0 l/m 0 min 0 min 0,0 UV-I 0 W/m 12,9 km/h (3 Bft)
24.02.2014 22:14 8,0 C 5,6 C 77 % 1011,7 hPa 0,0 l/m 0 min 0 min 0,0 UV-I 0 W/m 10,3 km/h (2 Bft)
24.02.2014 22:16 7,9 C 5,6 C 77 % 1011,7 hPa 0,0 l/m 0 min 0 min 0,0 UV-I 0 W/m 7,7 km/h (2 Bft)
24.02.2014 22:18 7,9 C 5,6 C 77 % 1011,7 hPa 0,0 l/m 0 min 0 min 0,0 UV-I 0 W/m 7,7 km/h (2 Bft)
24.02.2014 22:20 7,9 C 5,6 C 77 % 1011,6 hPa 0,0 l/m 0 min 0 min 0,0 UV-I 0 W/m 0,0 km/h (0 Bft)
24.02.2014 22:22 7,8 C 5,6 C 77 % 1011,6 hPa 0,0 l/m 0 min 0 min 0,0 UV-I 0 W/m 5,1 km/h (1 Bft)
24.02.2014 22:24 7,8 C 5,6 C 78 % 1011,6 hPa 0,0 l/m 0 min 0 min 0,0 UV-I 0 W/m 10,3 km/h (2 Bft)
24.02.2014 22:26 7,8 C 5,6 C 78 % 1011,6 hPa 0,0 l/m 0 min 0 min 0,0 UV-I 0 W/m 10,3 km/h (2 Bft)
24.02.2014 22:28 7,7 C 5,6 C 78 % 1011,6 hPa 0,0 l/m 0 min 0 min 0,0 UV-I 0 W/m 12,9 km/h (3 Bft)
24.02.2014 22:30 7,7 C 5,6 C 78 % 1011,6 hPa 0,0 l/m 0 min 0 min 0,0 UV-I 0 W/m 10,3 km/h (2 Bft)
24.02.2014 22:32 7,7 C 5,6 C 78 % 1011,6 hPa 0,0 l/m 0 min 0 min 0,0 UV-I 0 W/m 10,3 km/h (2 Bft)
24.02.2014 22:34 7,7 C 5,6 C 78 % 1011,6 hPa 0,0 l/m 0 min 0 min 0,0 UV-I 0 W/m 7,7 km/h (2 Bft)
24.02.2014 22:36 7,7 C 5,6 C 78 % 1011,5 hPa 0,0 l/m 0 min 0 min 0,0 UV-I 0 W/m 10,3 km/h (2 Bft)
24.02.2014 22:38 7,7 C 5,6 C 78 % 1011,6 hPa 0,0 l/m 0 min 0 min 0,0 UV-I 0 W/m 15,4 km/h (3 Bft)
24.02.2014 22:40 7,7 C 5,6 C 78 % 1011,5 hPa 0,0 l/m 0 min 0 min 0,0 UV-I 0 W/m 10,3 km/h (2 Bft)
24.02.2014 22:42 7,7 C 5,6 C 77 % 1011,5 hPa 0,0 l/m 0 min 0 min 0,0 UV-I 0 W/m 12,9 km/h (3 Bft)
24.02.2014 22:44 7,7 C 5,6 C 77 % 1011,5 hPa 0,0 l/m 0 min 0 min 0,0 UV-I 0 W/m 15,4 km/h (3 Bft)
24.02.2014 22:46 7,7 C 5,6 C 77 % 1011,5 hPa 0,0 l/m 0 min 0 min 0,0 UV-I 0 W/m 10,3 km/h (2 Bft)
24.02.2014 22:48 7,7 C 5,6 C 77 % 1011,5 hPa 0,0 l/m 0 min 0 min 0,0 UV-I 0 W/m 7,7 km/h (2 Bft)
24.02.2014 22:50 7,6 C 5,6 C 77 % 1011,5 hPa 0,0 l/m 0 min 0 min 0,0 UV-I 0 W/m 7,7 km/h (2 Bft)
24.02.2014 22:52 7,6 C 5,6 C 78 % 1011,5 hPa 0,0 l/m 0 min 0 min 0,0 UV-I 0 W/m 12,9 km/h (3 Bft)
24.02.2014 22:54 7,6 C 5,6 C 78 % 1011,5 hPa 0,0 l/m 0 min 0 min 0,0 UV-I 0 W/m 10,3 km/h (2 Bft)
24.02.2014 22:56 7,5 C 5,6 C 78 % 1011,5 hPa 0,0 l/m 0 min 0 min 0,0 UV-I 0 W/m 7,7 km/h (2 Bft)
24.02.2014 22:58 7,5 C 5,6 C 78 % 1011,5 hPa 0,0 l/m 0 min 0 min 0,0 UV-I 0 W/m 7,7 km/h (2 Bft)
24.02.2014 23:00 7,4 C 5,6 C 78 % 1011,4 hPa 0,0 l/m 0 min 0 min 0,0 UV-I 0 W/m 12,9 km/h (3 Bft)
24.02.2014 23:02 7,4 C 5,0 C 78 % 1011,4 hPa 0,0 l/m 0 min 0 min 0,0 UV-I 0 W/m 7,7 km/h (2 Bft)
24.02.2014 23:04 7,4 C 5,0 C 78 % 1011,3 hPa 0,0 l/m 0 min 0 min 0,0 UV-I 0 W/m 12,9 km/h (3 Bft)
24.02.2014 23:06 7,4 C 5,6 C 78 % 1011,3 hPa 0,0 l/m 0 min 0 min 0,0 UV-I 0 W/m 10,3 km/h (2 Bft)
24.02.2014 23:08 7,4 C 5,6 C 79 % 1011,3 hPa 0,0 l/m 0 min 0 min 0,0 UV-I 0 W/m 12,9 km/h (3 Bft)
24.02.2014 23:10 7,4 C 5,6 C 79 % 1011,3 hPa 0,0 l/m 0 min 0 min 0,0 UV-I 0 W/m 12,9 km/h (3 Bft)
24.02.2014 23:12 7,3 C 5,0 C 79 % 1011,4 hPa 0,0 l/m 0 min 0 min 0,0 UV-I 0 W/m 10,3 km/h (2 Bft)
24.02.2014 23:14 7,3 C 5,0 C 79 % 1011,4 hPa 0,0 l/m 0 min 0 min 0,0 UV-I 0 W/m 10,3 km/h (2 Bft)
24.02.2014 23:16 7,3 C 5,0 C 79 % 1011,4 hPa 0,0 l/m 0 min 0 min 0,0 UV-I 0 W/m 7,7 km/h (2 Bft)
24.02.2014 23:18 7,2 C 5,0 C 79 % 1011,3 hPa 0,0 l/m 0 min 0 min 0,0 UV-I 0 W/m 15,4 km/h (3 Bft)
24.02.2014 23:20 7,2 C 5,0 C 79 % 1011,3 hPa 0,0 l/m 0 min 0 min 0,0 UV-I 0 W/m 7,7 km/h (2 Bft)
24.02.2014 23:22 7,1 C 5,0 C 79 % 1011,3 hPa 0,0 l/m 0 min 0 min 0,0 UV-I 0 W/m 7,7 km/h (2 Bft)
24.02.2014 23:24 7,1 C 5,0 C 79 % 1011,3 hPa 0,0 l/m 0 min 0 min 0,0 UV-I 0 W/m 7,7 km/h (2 Bft)
24.02.2014 23:26 7,0 C 5,0 C 80 % 1011,2 hPa 0,0 l/m 0 min 0 min 0,0 UV-I 0 W/m 5,1 km/h (1 Bft)
24.02.2014 23:28 7,0 C 5,0 C 80 % 1011,3 hPa 0,0 l/m 0 min 0 min 0,0 UV-I 0 W/m 0,0 km/h (0 Bft)
24.02.2014 23:30 6,9 C 5,0 C 80 % 1011,2 hPa 0,0 l/m 0 min 0 min 0,0 UV-I 0 W/m 0,0 km/h (0 Bft)
24.02.2014 23:32 6,9 C 5,0 C 80 % 1011,2 hPa 0,0 l/m 0 min 0 min 0,0 UV-I 0 W/m 0,0 km/h (0 Bft)
24.02.2014 23:34 6,8 C 5,0 C 80 % 1011,2 hPa 0,0 l/m 0 min 0 min 0,0 UV-I 0 W/m 0,0 km/h (0 Bft)
24.02.2014 23:36 6,8 C 4,4 C 80 % 1011,2 hPa 0,0 l/m 0 min 0 min 0,0 UV-I 0 W/m 0,0 km/h (0 Bft)
24.02.2014 23:38 6,7 C 4,4 C 80 % 1011,2 hPa 0,0 l/m 0 min 0 min 0,0 UV-I 0 W/m 0,0 km/h (0 Bft)
24.02.2014 23:40 6,7 C 4,4 C 81 % 1011,2 hPa 0,0 l/m 0 min 0 min 0,0 UV-I 0 W/m 0,0 km/h (0 Bft)
24.02.2014 23:42 6,7 C 4,4 C 81 % 1011,2 hPa 0,0 l/m 0 min 0 min 0,0 UV-I 0 W/m 0,0 km/h (0 Bft)
24.02.2014 23:44 6,7 C 4,4 C 81 % 1011,2 hPa 0,0 l/m 0 min 0 min 0,0 UV-I 0 W/m 0,0 km/h (0 Bft)
24.02.2014 23:46 6,6 C 4,4 C 81 % 1011,1 hPa 0,0 l/m 0 min 0 min 0,0 UV-I 0 W/m 5,1 km/h (1 Bft)
24.02.2014 23:48 6,6 C 4,4 C 81 % 1011,1 hPa 0,0 l/m 0 min 0 min 0,0 UV-I 0 W/m 7,7 km/h (2 Bft)
24.02.2014 23:50 6,6 C 4,4 C 81 % 1011,1 hPa 0,0 l/m 0 min 0 min 0,0 UV-I 0 W/m 2,6 km/h (1 Bft)
24.02.2014 23:52 6,6 C 4,4 C 82 % 1011,1 hPa 0,0 l/m 0 min 0 min 0,0 UV-I 0 W/m 12,9 km/h (3 Bft)
24.02.2014 23:54 6,6 C 4,4 C 82 % 1011,1 hPa 0,0 l/m 0 min 0 min 0,0 UV-I 0 W/m 12,9 km/h (3 Bft)
24.02.2014 23:56 6,7 C 5,0 C 82 % 1011,1 hPa 0,0 l/m 0 min 0 min 0,0 UV-I 0 W/m 10,3 km/h (2 Bft)
24.02.2014 23:58 6,7 C 5,0 C 82 % 1011,1 hPa 0,0 l/m 0 min 0 min 0,0 UV-I 0 W/m 10,3 km/h (2 Bft)
_ Min-Zeit 06:40 05:58 15:20 15:10 - - - - - 00:38
Minimum _ 3,3 C 1,7 C 50 % 1010,7 hPa - - - - - 0,0 km/h (0 Bft)
_ Max-Zeit 14:58 14:54 08:26 00:06 00:00 08:38 00:00 12:54 13:08 09:50
Maximum _ 15,4 C 13,3 C 91 % 1017,8 hPa 0,0 l/m 2 min 0 min 0,7 UV-I 475 W/m 41,2 km/h
S-SO (6 Bft)
Durchschnitt _ 8,2 C 6,2 C 75 % 1013,1 hPa #0,0 l/m #8:06 h #0 min. 0,6 UV-I 241 W/m 14,4 km/h (3 Bft)
© 2014 W. Hausmann